Time,TemperatureF,DewpointF,PressureIn,WindDirection,WindDirectionDegrees,WindSpeedMPH,WindSpeedGustMPH,Humidity,HourlyPrecipIn,Conditions,Clouds,dailyrainin,SoftwareType,DateUTC
2013-03-02 00:00:00,33.8,29.2,29.88,WNW,293,0.4,1.3,83,0.00,,,0.00,WUHU216HW,2013-03-02 05:00:00,
2013-03-02 00:01:00,33.8,29.2,29.88,West,270,0.7,1.3,83,0.00,,,0.00,WUHU216HW,2013-03-02 05:01:00,
2013-03-02 00:02:00,33.8,29.2,29.88,West,270,1.1,1.1,83,0.00,,,0.00,WUHU216HW,2013-03-02 05:02:00,
2013-03-02 00:05:00,33.8,29.2,29.88,WNW,293,0.2,1.3,83,0.00,,,0.00,WUHU216HW,2013-03-02 05:05:00,
2013-03-02 00:06:00,33.8,29.2,29.88,WNW,293,0.2,1.3,83,0.00,,,0.00,WUHU216HW,2013-03-02 05:06:00,
2013-03-02 00:07:00,33.8,29.2,29.88,WNW,293,0.0,1.3,83,0.00,,,0.00,WUHU216HW,2013-03-02 05:07:00,
2013-03-02 00:11:00,33.8,29.4,29.88,WNW,288,1.0,1.6,84,0.00,,,0.00,WUHU216HW,2013-03-02 05:11:00,
2013-03-02 00:12:00,33.8,29.2,29.88,West,270,0.3,1.6,83,0.00,,,0.00,WUHU216HW,2013-03-02 05:12:00,
2013-03-02 00:16:00,33.8,29.2,29.88,WNW,295,0.9,1.6,83,0.00,,,0.00,WUHU216HW,2013-03-02 05:16:00,
2013-03-02 00:17:00,33.8,29.2,29.88,NNW,338,0.2,1.6,83,0.00,,,0.00,WUHU216HW,2013-03-02 05:17:00,
2013-03-02 00:21:00,33.8,29.2,29.88,WSW,248,1.1,1.1,83,0.00,,,0.00,WUHU216HW,2013-03-02 05:21:00,
2013-03-02 00:23:00,33.8,29.2,29.88,WSW,248,0.8,1.1,83,0.00,,,0.00,WUHU216HW,2013-03-02 05:23:00,
2013-03-02 00:26:00,33.8,29.2,29.87,NNW,347,0.6,1.3,83,0.00,,,0.00,WUHU216HW,2013-03-02 05:26:00,
2013-03-02 00:27:00,33.8,29.2,29.87,NNW,347,0.6,1.3,83,0.00,,,0.00,WUHU216HW,2013-03-02 05:27:00,
2013-03-02 00:28:00,33.8,29.2,29.87,NW,315,1.1,1.3,83,0.00,,,0.00,WUHU216HW,2013-03-02 05:28:00,
2013-03-02 00:32:00,33.8,29.7,29.87,NNW,328,1.1,1.6,85,0.00,,,0.00,WUHU216HW,2013-03-02 05:32:00,
2013-03-02 00:33:00,33.8,29.4,29.87,NW,315,0.2,1.6,84,0.00,,,0.00,WUHU216HW,2013-03-02 05:33:00,
2013-03-02 00:35:00,33.8,29.4,29.87,NW,315,0.4,1.6,84,0.00,,,0.00,WUHU216HW,2013-03-02 05:35:00,
2013-03-02 00:38:00,33.8,29.4,29.87,NW,315,0.4,1.6,84,0.00,,,0.00,WUHU216HW,2013-03-02 05:38:00,
2013-03-02 00:41:00,33.8,29.2,29.87,NW,315,0.0,0.4,83,0.00,,,0.00,WUHU216HW,2013-03-02 05:41:00,
2013-03-02 00:43:00,33.8,29.4,29.87,NW,315,0.7,0.7,84,0.00,,,0.00,WUHU216HW,2013-03-02 05:43:00,
2013-03-02 00:44:00,33.8,29.4,29.87,NW,315,0.7,0.7,84,0.00,,,0.00,WUHU216HW,2013-03-02 05:44:00,
2013-03-02 00:46:00,33.8,29.4,29.87,SW,225,1.3,1.3,84,0.00,,,0.00,WUHU216HW,2013-03-02 05:46:00,
2013-03-02 00:49:00,33.8,29.4,29.87,SW,225,0.2,1.3,84,0.00,,,0.00,WUHU216HW,2013-03-02 05:49:00,
2013-03-02 00:50:00,33.8,29.4,29.87,SW,225,0.0,1.3,84,0.00,,,0.00,WUHU216HW,2013-03-02 05:50:00,
2013-03-02 00:51:00,33.8,29.4,29.87,SW,225,0.4,1.3,84,0.00,,,0.00,WUHU216HW,2013-03-02 05:51:00,
2013-03-02 00:54:00,33.8,29.4,29.88,SW,225,0.0,1.3,84,0.00,,,0.00,WUHU216HW,2013-03-02 05:54:00,
2013-03-02 00:55:00,33.8,29.4,29.88,SW,225,0.0,0.4,84,0.00,,,0.00,WUHU216HW,2013-03-02 05:55:00,
2013-03-02 00:57:00,33.8,29.4,29.88,SW,225,0.4,0.4,84,0.00,,,0.00,WUHU216HW,2013-03-02 05:57:00,
2013-03-02 00:59:00,33.8,29.4,29.87,West,270,0.8,1.1,84,0.00,,,0.00,WUHU216HW,2013-03-02 05:59:00,
2013-03-02 01:01:00,33.8,29.4,29.87,West,270,0.4,1.1,84,0.00,,,0.00,WUHU216HW,2013-03-02 06:01:00,
2013-03-02 01:02:00,33.8,29.4,29.87,WNW,293,1.6,1.6,84,0.00,,,0.00,WUHU216HW,2013-03-02 06:02:00,
2013-03-02 01:05:00,33.8,29.4,29.87,West,270,1.8,1.8,84,0.00,,,0.00,WUHU216HW,2013-03-02 06:05:00,
2013-03-02 01:06:00,33.8,29.4,29.87,West,279,1.9,2.2,84,0.00,,,0.00,WUHU216HW,2013-03-02 06:06:00,
2013-03-02 01:08:00,33.7,29.5,29.87,NNW,341,1.4,2.2,85,0.00,,,0.00,WUHU216HW,2013-03-02 06:08:00,
2013-03-02 01:10:00,33.7,29.3,29.87,WNW,293,1.3,2.2,84,0.00,,,0.00,WUHU216HW,2013-03-02 06:10:00,
2013-03-02 01:12:00,33.7,29.5,29.87,NW,315,1.8,2.2,85,0.00,,,0.00,WUHU216HW,2013-03-02 06:12:00,
2013-03-02 01:13:00,33.7,29.5,29.87,NW,315,1.8,2.2,85,0.00,,,0.00,WUHU216HW,2013-03-02 06:13:00,
2013-03-02 01:16:00,33.5,29.1,29.87,North,0,1.1,2.0,84,0.00,,,0.00,WUHU216HW,2013-03-02 06:16:00,
2013-03-02 01:17:00,33.5,29.3,29.87,West,270,1.6,1.8,85,0.00,,,0.00,WUHU216HW,2013-03-02 06:17:00,
2013-03-02 01:18:00,33.5,29.3,29.87,West,270,1.6,1.8,85,0.00,,,0.00,WUHU216HW,2013-03-02 06:18:00,
2013-03-02 01:19:00,33.5,29.3,29.87,West,270,1.0,1.8,85,0.00,,,0.00,WUHU216HW,2013-03-02 06:19:00,
2013-03-02 01:22:00,33.5,29.1,29.87,WNW,293,0.4,1.8,84,0.00,,,0.00,WUHU216HW,2013-03-02 06:22:00,
2013-03-02 01:23:00,33.5,29.1,29.87,WNW,293,0.4,1.6,84,0.00,,,0.00,WUHU216HW,2013-03-02 06:23:00,
2013-03-02 01:24:00,33.5,29.1,29.87,WNW,293,0.0,1.6,84,0.00,,,0.00,WUHU216HW,2013-03-02 06:24:00,
2013-03-02 01:27:00,33.5,29.3,29.87,WNW,293,0.0,0.9,85,0.00,,,0.00,WUHU216HW,2013-03-02 06:27:00,
2013-03-02 01:28:00,33.5,29.1,29.87,WNW,293,0.0,0.9,84,0.00,,,0.00,WUHU216HW,2013-03-02 06:28:00,
2013-03-02 01:30:00,33.5,29.1,29.87,WNW,293,2.2,2.2,84,0.00,,,0.00,WUHU216HW,2013-03-02 06:30:00,
2013-03-02 01:32:00,33.5,29.3,29.87,West,270,0.4,2.2,85,0.00,,,0.00,WUHU216HW,2013-03-02 06:32:00,
2013-03-02 01:33:00,33.5,29.3,29.87,West,270,0.4,2.2,85,0.00,,,0.00,WUHU216HW,2013-03-02 06:33:00,
2013-03-02 01:35:00,33.5,29.3,29.87,West,270,0.0,2.2,85,0.00,,,0.00,WUHU216HW,2013-03-02 06:35:00,
2013-03-02 01:37:00,33.5,29.3,29.87,WNW,293,0.4,2.2,85,0.00,,,0.00,WUHU216HW,2013-03-02 06:37:00,
2013-03-02 01:39:00,33.5,29.3,29.87,WNW,293,0.0,0.9,85,0.00,,,0.00,WUHU216HW,2013-03-02 06:39:00,
2013-03-02 01:40:00,33.5,29.3,29.87,West,270,2.5,2.5,85,0.00,,,0.00,WUHU216HW,2013-03-02 06:40:00,
2013-03-02 01:41:00,33.5,29.3,29.87,West,270,2.5,2.5,85,0.00,,,0.00,WUHU216HW,2013-03-02 06:41:00,
2013-03-02 01:43:00,33.3,29.5,29.87,WNW,293,0.7,2.5,86,0.00,,,0.00,WUHU216HW,2013-03-02 06:43:00,
2013-03-02 01:45:00,33.5,29.3,29.87,WNW,293,0.2,2.5,85,0.00,,,0.00,WUHU216HW,2013-03-02 06:45:00,
2013-03-02 01:46:00,33.3,29.3,29.87,WNW,293,0.9,2.5,85,0.00,,,0.00,WUHU216HW,2013-03-02 06:46:00,
2013-03-02 01:49:00,33.3,29.3,29.87,NW,315,0.2,2.5,85,0.00,,,0.00,WUHU216HW,2013-03-02 06:49:00,
2013-03-02 01:50:00,33.3,29.3,29.87,NW,315,0.0,1.3,85,0.00,,,0.00,WUHU216HW,2013-03-02 06:50:00,
2013-03-02 01:51:00,33.3,29.3,29.87,NW,315,0.0,1.3,85,0.00,,,0.00,WUHU216HW,2013-03-02 06:51:00,
2013-03-02 01:55:00,33.3,29.3,29.87,NW,315,0.0,1.3,85,0.00,,,0.00,WUHU216HW,2013-03-02 06:55:00,
2013-03-02 01:56:00,33.3,29.3,29.87,NW,315,0.0,1.3,85,0.00,,,0.00,WUHU216HW,2013-03-02 06:56:00,
2013-03-02 01:57:00,33.3,29.3,29.87,NW,315,0.0,0.2,85,0.00,,,0.00,WUHU216HW,2013-03-02 06:57:00,
2013-03-02 02:00:00,33.3,29.3,29.87,NW,315,0.0,0.0,85,0.00,,,0.00,WUHU216HW,2013-03-02 07:00:00,
2013-03-02 02:01:00,33.3,29.3,29.87,NW,315,0.0,0.0,85,0.00,,,0.00,WUHU216HW,2013-03-02 07:01:00,
2013-03-02 02:02:00,33.3,29.3,29.87,NW,315,0.0,0.0,85,0.00,,,0.00,WUHU216HW,2013-03-02 07:02:00,
2013-03-02 02:06:00,33.3,29.3,29.87,WNW,293,0.2,0.2,85,0.00,,,0.00,WUHU216HW,2013-03-02 07:06:00,
2013-03-02 02:07:00,33.3,29.3,29.87,WNW,293,0.2,0.2,85,0.00,,,0.00,WUHU216HW,2013-03-02 07:07:00,
2013-03-02 02:08:00,33.3,29.3,29.87,WNW,293,0.0,0.2,85,0.00,,,0.00,WUHU216HW,2013-03-02 07:08:00,
2013-03-02 02:11:00,33.3,29.3,29.87,WNW,293,0.0,0.9,85,0.00,,,0.00,WUHU216HW,2013-03-02 07:11:00,
2013-03-02 02:12:00,33.1,29.1,29.87,WNW,293,0.0,0.9,85,0.00,,,0.00,WUHU216HW,2013-03-02 07:12:00,
2013-03-02 02:13:00,33.1,29.1,29.87,WNW,293,0.0,0.9,85,0.00,,,0.00,WUHU216HW,2013-03-02 07:13:00,
2013-03-02 02:17:00,33.1,29.3,29.87,North,0,1.6,1.6,86,0.00,,,0.00,WUHU216HW,2013-03-02 07:17:00,
2013-03-02 02:18:00,33.1,29.3,29.87,West,270,3.4,3.4,86,0.00,,,0.00,WUHU216HW,2013-03-02 07:18:00,
2013-03-02 02:22:00,33.1,29.3,29.87,NW,315,1.1,3.4,86,0.00,,,0.00,WUHU216HW,2013-03-02 07:22:00,
2013-03-02 02:23:00,33.1,29.3,29.87,NW,315,1.1,3.4,86,0.00,,,0.00,WUHU216HW,2013-03-02 07:23:00,
2013-03-02 02:25:00,33.1,29.3,29.87,WNW,293,0.6,3.4,86,0.00,,,0.00,WUHU216HW,2013-03-02 07:25:00,
2013-03-02 02:27:00,32.9,29.2,29.87,WNW,293,0.9,1.1,86,0.00,,,0.00,WUHU216HW,2013-03-02 07:27:00,
2013-03-02 02:28:00,32.9,29.2,29.87,WNW,293,0.9,1.1,86,0.00,,,0.00,WUHU216HW,2013-03-02 07:28:00,
2013-03-02 02:29:00,32.9,29.2,29.87,WNW,293,0.9,1.1,86,0.00,,,0.00,WUHU216HW,2013-03-02 07:29:00,
2013-03-02 02:30:00,32.9,29.2,29.87,WNW,293,0.8,1.1,86,0.00,,,0.00,WUHU216HW,2013-03-02 07:30:00,
2013-03-02 02:32:00,32.9,29.2,29.87,West,270,1.6,1.6,86,0.00,,,0.00,WUHU216HW,2013-03-02 07:32:00,
2013-03-02 02:33:00,32.9,29.2,29.87,West,270,0.0,1.6,86,0.00,,,0.00,WUHU216HW,2013-03-02 07:33:00,
2013-03-02 02:34:00,32.9,29.2,29.86,WNW,293,0.4,1.6,86,0.00,,,0.00,WUHU216HW,2013-03-02 07:34:00,
2013-03-02 02:35:00,32.9,29.2,29.87,WNW,293,0.0,1.6,86,0.00,,,0.00,WUHU216HW,2013-03-02 07:35:00,
2013-03-02 02:39:00,32.9,29.2,29.86,WNW,293,0.7,1.6,86,0.00,,,0.00,WUHU216HW,2013-03-02 07:39:00,
2013-03-02 02:40:00,32.9,29.2,29.86,WNW,293,0.7,1.6,86,0.00,,,0.00,WUHU216HW,2013-03-02 07:40:00,
2013-03-02 02:41:00,32.9,29.2,29.86,WNW,293,0.2,1.6,86,0.00,,,0.00,WUHU216HW,2013-03-02 07:41:00,
2013-03-02 02:44:00,32.9,29.2,29.86,WNW,293,0.7,0.7,86,0.00,,,0.00,WUHU216HW,2013-03-02 07:44:00,
2013-03-02 02:45:00,32.9,29.2,29.87,WNW,293,0.7,0.7,86,0.00,,,0.00,WUHU216HW,2013-03-02 07:45:00,
2013-03-02 02:46:00,32.9,29.2,29.86,WNW,293,0.7,0.7,86,0.00,,,0.00,WUHU216HW,2013-03-02 07:46:00,
2013-03-02 02:50:00,32.9,29.2,29.86,WNW,293,0.0,1.1,86,0.00,,,0.00,WUHU216HW,2013-03-02 07:50:00,
2013-03-02 02:52:00,32.9,29.2,29.86,WNW,293,0.0,1.1,86,0.00,,,0.00,WUHU216HW,2013-03-02 07:52:00,
2013-03-02 02:55:00,32.9,29.2,29.86,WNW,293,0.7,1.1,86,0.00,,,0.00,WUHU216HW,2013-03-02 07:55:00,
2013-03-02 02:56:00,32.8,29.0,29.86,WNW,293,0.7,1.1,86,0.00,,,0.00,WUHU216HW,2013-03-02 07:56:00,
2013-03-02 02:57:00,32.9,29.2,29.86,WNW,293,0.0,0.7,86,0.00,,,0.00,WUHU216HW,2013-03-02 07:57:00,
2013-03-02 03:00:00,32.8,29.0,29.85,WNW,293,0.0,0.7,86,0.00,,,0.00,WUHU216HW,2013-03-02 08:00:00,
2013-03-02 03:01:00,32.8,29.0,29.85,WNW,293,0.0,0.7,86,0.00,,,0.00,WUHU216HW,2013-03-02 08:01:00,
2013-03-02 03:03:00,32.8,29.0,29.85,WNW,293,0.0,0.7,86,0.00,,,0.00,WUHU216HW,2013-03-02 08:03:00,
2013-03-02 03:05:00,32.8,29.4,29.85,WNW,293,1.3,1.3,87,0.00,,,0.00,WUHU216HW,2013-03-02 08:05:00,
2013-03-02 03:06:00,32.8,29.0,29.85,WNW,293,1.3,1.3,86,0.00,,,0.00,WUHU216HW,2013-03-02 08:06:00,
2013-03-02 03:07:00,32.8,29.0,29.85,WNW,303,1.2,1.3,86,0.00,,,0.00,WUHU216HW,2013-03-02 08:07:00,
2013-03-02 03:08:00,32.8,29.0,29.85,NW,315,1.1,1.3,86,0.00,,,0.00,WUHU216HW,2013-03-02 08:08:00,
2013-03-02 03:11:00,32.8,29.0,29.85,WNW,299,1.5,2.0,86,0.00,,,0.00,WUHU216HW,2013-03-02 08:11:00,
2013-03-02 03:12:00,32.8,29.0,29.85,North,0,1.1,2.0,86,0.00,,,0.00,WUHU216HW,2013-03-02 08:12:00,
2013-03-02 03:13:00,32.8,29.0,29.85,North,0,1.1,2.0,86,0.00,,,0.00,WUHU216HW,2013-03-02 08:13:00,
2013-03-02 03:16:00,32.8,29.0,29.86,NNW,338,0.0,2.0,86,0.00,,,0.00,WUHU216HW,2013-03-02 08:16:00,
2013-03-02 03:17:00,32.8,29.0,29.85,NNW,338,1.1,2.0,86,0.00,,,0.00,WUHU216HW,2013-03-02 08:17:00,
2013-03-02 03:18:00,32.8,29.0,29.85,NNW,338,1.1,2.0,86,0.00,,,0.00,WUHU216HW,2013-03-02 08:18:00,
2013-03-02 03:22:00,32.8,29.0,29.85,WNW,293,0.0,1.6,86,0.00,,,0.00,WUHU216HW,2013-03-02 08:22:00,
2013-03-02 03:24:00,32.8,29.0,29.85,WNW,293,0.0,1.6,86,0.00,,,0.00,WUHU216HW,2013-03-02 08:24:00,
2013-03-02 03:27:00,32.8,29.0,29.85,NW,315,0.7,1.8,86,0.00,,,0.00,WUHU216HW,2013-03-02 08:27:00,
2013-03-02 03:29:00,32.8,29.0,29.85,NW,315,0.7,1.8,86,0.00,,,0.00,WUHU216HW,2013-03-02 08:29:00,
2013-03-02 03:33:00,32.8,29.0,29.85,NW,315,0.4,1.8,86,0.00,,,0.00,WUHU216HW,2013-03-02 08:33:00,
2013-03-02 03:34:00,32.8,29.0,29.85,NW,315,0.4,1.1,86,0.00,,,0.00,WUHU216HW,2013-03-02 08:34:00,
2013-03-02 03:38:00,32.9,29.2,29.84,WNW,293,0.0,0.9,86,0.00,,,0.00,WUHU216HW,2013-03-02 08:38:00,
2013-03-02 03:39:00,32.9,29.2,29.84,WNW,293,0.0,0.9,86,0.00,,,0.00,WUHU216HW,2013-03-02 08:39:00,
2013-03-02 03:40:00,32.9,29.2,29.84,WNW,293,0.0,0.9,86,0.00,,,0.00,WUHU216HW,2013-03-02 08:40:00,
2013-03-02 03:43:00,32.9,29.2,29.84,WSW,248,1.1,1.1,86,0.00,,,0.00,WUHU216HW,2013-03-02 08:43:00,
2013-03-02 03:45:00,32.9,29.2,29.84,WNW,293,0.6,1.1,86,0.00,,,0.00,WUHU216HW,2013-03-02 08:45:00,
2013-03-02 03:46:00,32.9,29.2,29.84,WNW,293,0.6,1.1,86,0.00,,,0.00,WUHU216HW,2013-03-02 08:46:00,
2013-03-02 03:49:00,33.1,29.1,29.84,WNW,293,0.0,1.1,85,0.00,,,0.00,WUHU216HW,2013-03-02 08:49:00,
2013-03-02 03:50:00,33.1,29.1,29.84,WNW,293,0.4,1.1,85,0.00,,,0.00,WUHU216HW,2013-03-02 08:50:00,
2013-03-02 03:51:00,33.1,29.3,29.84,WNW,293,1.1,1.1,86,0.00,,,0.00,WUHU216HW,2013-03-02 08:51:00,
2013-03-02 03:55:00,33.1,29.1,29.84,WNW,293,0.4,1.1,85,0.00,,,0.00,WUHU216HW,2013-03-02 08:55:00,
2013-03-02 03:56:00,33.1,29.1,29.84,WNW,293,1.1,1.1,85,0.00,,,0.00,WUHU216HW,2013-03-02 08:56:00,
2013-03-02 03:57:00,33.1,29.1,29.84,WNW,293,1.1,1.1,85,0.00,,,0.00,WUHU216HW,2013-03-02 08:57:00,
2013-03-02 04:01:00,33.1,29.1,29.84,NNW,338,0.4,1.1,85,0.00,,,0.00,WUHU216HW,2013-03-02 09:01:00,
2013-03-02 04:02:00,33.1,29.1,29.84,NW,315,0.9,1.1,85,0.00,,,0.00,WUHU216HW,2013-03-02 09:02:00,
2013-03-02 04:06:00,33.1,29.3,29.84,NNW,338,1.1,1.8,86,0.00,,,0.00,WUHU216HW,2013-03-02 09:06:00,
2013-03-02 04:07:00,33.1,29.3,29.84,NNW,338,1.1,1.8,86,0.00,,,0.00,WUHU216HW,2013-03-02 09:07:00,
2013-03-02 04:11:00,33.1,29.1,29.84,NNW,338,2.5,2.5,85,0.00,,,0.00,WUHU216HW,2013-03-02 09:11:00,
2013-03-02 04:12:00,33.1,29.1,29.84,NNW,338,2.5,2.5,85,0.00,,,0.00,WUHU216HW,2013-03-02 09:12:00,
2013-03-02 04:17:00,33.1,29.1,29.84,NNW,338,0.4,2.5,85,0.00,,,0.00,WUHU216HW,2013-03-02 09:17:00,
2013-03-02 04:18:00,33.1,29.1,29.84,NNW,338,0.0,2.5,85,0.00,,,0.00,WUHU216HW,2013-03-02 09:18:00,
2013-03-02 04:22:00,33.1,29.3,29.84,WNW,293,1.8,1.8,86,0.00,,,0.00,WUHU216HW,2013-03-02 09:22:00,
2013-03-02 04:23:00,33.1,29.3,29.84,WNW,293,1.8,1.8,86,0.00,,,0.00,WUHU216HW,2013-03-02 09:23:00,
2013-03-02 04:27:00,32.9,29.2,29.84,NW,315,1.1,1.8,86,0.00,,,0.00,WUHU216HW,2013-03-02 09:27:00,
2013-03-02 04:28:00,32.9,29.2,29.84,NW,315,1.1,1.8,86,0.00,,,0.00,WUHU216HW,2013-03-02 09:28:00,
2013-03-02 04:29:00,32.9,29.2,29.85,NW,324,0.9,1.8,86,0.00,,,0.00,WUHU216HW,2013-03-02 09:29:00,
2013-03-02 04:33:00,32.9,28.9,29.85,NNW,338,0.0,1.8,85,0.00,,,0.00,WUHU216HW,2013-03-02 09:33:00,
2013-03-02 04:34:00,32.9,28.9,29.85,NNW,338,0.0,1.8,85,0.00,,,0.00,WUHU216HW,2013-03-02 09:34:00,
2013-03-02 04:38:00,32.9,28.9,29.85,NW,315,0.4,1.8,85,0.00,,,0.00,WUHU216HW,2013-03-02 09:38:00,
2013-03-02 04:39:00,32.9,28.9,29.85,NW,315,0.4,1.8,85,0.00,,,0.00,WUHU216HW,2013-03-02 09:39:00,
2013-03-02 04:40:00,33.1,29.1,29.85,NNW,338,1.3,1.8,85,0.00,,,0.00,WUHU216HW,2013-03-02 09:40:00,
2013-03-02 04:43:00,33.1,29.1,29.85,WNW,293,0.4,1.8,85,0.00,,,0.00,WUHU216HW,2013-03-02 09:43:00,
2013-03-02 04:44:00,33.1,29.1,29.85,WNW,293,0.4,1.8,85,0.00,,,0.00,WUHU216HW,2013-03-02 09:44:00,
2013-03-02 04:47:00,33.1,29.3,29.84,WNW,293,0.6,1.3,86,0.00,,,0.00,WUHU216HW,2013-03-02 09:47:00,
2013-03-02 04:49:00,33.1,29.3,29.84,WNW,293,1.1,1.3,86,0.00,,,0.00,WUHU216HW,2013-03-02 09:49:00,
2013-03-02 04:53:00,32.9,29.2,29.84,NW,315,2.5,2.5,86,0.00,,,0.00,WUHU216HW,2013-03-02 09:53:00,
2013-03-02 04:54:00,32.9,29.2,29.84,NW,315,1.6,2.5,86,0.00,,,0.00,WUHU216HW,2013-03-02 09:54:00,
2013-03-02 04:55:00,32.9,29.2,29.84,NW,315,1.6,2.5,86,0.00,,,0.00,WUHU216HW,2013-03-02 09:55:00,
2013-03-02 04:59:00,32.8,29.0,29.84,NW,315,0.4,2.5,86,0.00,,,0.00,WUHU216HW,2013-03-02 09:59:00,
2013-03-02 05:00:00,32.8,29.0,29.84,NW,315,0.4,2.5,86,0.00,,,0.00,WUHU216HW,2013-03-02 10:00:00,
2013-03-02 05:05:00,32.8,29.0,29.85,NNW,338,2.5,2.5,86,0.00,,,0.00,WUHU216HW,2013-03-02 10:05:00,
2013-03-02 05:06:00,32.8,29.0,29.85,NNW,338,2.5,2.5,86,0.00,,,0.00,WUHU216HW,2013-03-02 10:06:00,
2013-03-02 05:11:00,32.8,29.0,29.84,NW,315,2.5,2.5,86,0.00,,,0.00,WUHU216HW,2013-03-02 10:11:00,
2013-03-02 05:13:00,32.8,29.0,29.84,WNW,293,1.1,2.5,86,0.00,,,0.00,WUHU216HW,2013-03-02 10:13:00,
2013-03-02 05:16:00,32.8,29.0,29.84,NW,305,1.0,2.5,86,0.00,,,0.00,WUHU216HW,2013-03-02 10:16:00,
2013-03-02 05:17:00,32.8,29.0,29.84,NW,305,1.0,2.5,86,0.00,,,0.00,WUHU216HW,2013-03-02 10:17:00,
2013-03-02 05:18:00,32.6,28.9,29.84,WNW,293,0.0,2.5,86,0.00,,,0.00,WUHU216HW,2013-03-02 10:18:00,
2013-03-02 05:19:00,32.6,28.9,29.84,WNW,293,0.4,1.6,86,0.00,,,0.00,WUHU216HW,2013-03-02 10:19:00,
2013-03-02 05:21:00,32.6,28.9,29.85,WNW,293,0.4,1.6,86,0.00,,,0.00,WUHU216HW,2013-03-02 10:21:00,
2013-03-02 05:24:00,32.6,28.9,29.85,NNW,338,1.8,1.8,86,0.00,,,0.00,WUHU216HW,2013-03-02 10:24:00,
2013-03-02 05:26:00,32.4,28.7,29.85,NW,315,0.2,1.8,86,0.00,,,0.00,WUHU216HW,2013-03-02 10:26:00,
2013-03-02 05:29:00,32.4,28.7,29.85,NW,315,0.4,1.8,86,0.00,,,0.00,WUHU216HW,2013-03-02 10:29:00,
2013-03-02 05:30:00,32.4,28.7,29.85,NW,315,0.4,1.8,86,0.00,,,0.00,WUHU216HW,2013-03-02 10:30:00,
2013-03-02 05:31:00,32.4,28.7,29.85,NW,315,0.2,1.8,86,0.00,,,0.00,WUHU216HW,2013-03-02 10:31:00,
2013-03-02 05:33:00,32.4,28.7,29.85,NW,315,0.4,1.8,86,0.00,,,0.00,WUHU216HW,2013-03-02 10:33:00,
2013-03-02 05:36:00,32.4,28.7,29.85,NNW,338,0.7,0.7,86,0.00,,,0.00,WUHU216HW,2013-03-02 10:36:00,
2013-03-02 05:37:00,32.2,28.5,29.85,NNW,338,0.4,0.7,86,0.00,,,0.00,WUHU216HW,2013-03-02 10:37:00,
2013-03-02 05:38:00,32.2,28.5,29.84,NNW,338,0.0,0.7,86,0.00,,,0.00,WUHU216HW,2013-03-02 10:38:00,
2013-03-02 05:41:00,32.2,28.5,29.85,NNW,338,0.2,0.7,86,0.00,,,0.00,WUHU216HW,2013-03-02 10:41:00,
2013-03-02 05:42:00,32.2,28.5,29.85,NNW,338,0.4,0.7,86,0.00,,,0.00,WUHU216HW,2013-03-02 10:42:00,
2013-03-02 05:43:00,32.2,28.5,29.84,NNW,338,1.1,1.1,86,0.00,,,0.00,WUHU216HW,2013-03-02 10:43:00,
2013-03-02 05:47:00,32.0,28.4,29.84,NW,315,1.8,1.8,86,0.00,,,0.00,WUHU216HW,2013-03-02 10:47:00,
2013-03-02 05:48:00,32.0,28.4,29.84,NW,315,1.5,1.8,86,0.00,,,0.00,WUHU216HW,2013-03-02 10:48:00,
2013-03-02 05:52:00,32.0,28.4,29.85,NW,315,0.3,1.8,86,0.00,,,0.00,WUHU216HW,2013-03-02 10:52:00,
2013-03-02 05:53:00,32.0,28.4,29.85,NW,315,0.2,1.8,86,0.00,,,0.00,WUHU216HW,2013-03-02 10:53:00,
2013-03-02 05:54:00,32.0,28.4,29.85,NW,315,0.2,1.8,86,0.00,,,0.00,WUHU216HW,2013-03-02 10:54:00,
2013-03-02 05:57:00,32.0,28.4,29.85,NW,315,0.0,0.9,86,0.00,,,0.00,WUHU216HW,2013-03-02 10:57:00,
2013-03-02 05:59:00,32.0,28.4,29.85,NW,315,0.0,0.9,86,0.00,,,0.00,WUHU216HW,2013-03-02 10:59:00,
2013-03-02 06:00:00,32.0,28.4,29.85,NW,315,0.0,0.9,86,0.00,,,0.00,WUHU216HW,2013-03-02 11:00:00,
2013-03-02 06:03:00,32.0,28.4,29.85,NW,315,0.0,0.0,86,0.00,,,0.00,WUHU216HW,2013-03-02 11:03:00,
2013-03-02 06:04:00,32.0,28.4,29.85,NW,315,0.0,0.0,86,0.00,,,0.00,WUHU216HW,2013-03-02 11:04:00,
2013-03-02 06:05:00,32.0,28.4,29.85,NW,315,0.0,0.0,86,0.00,,,0.00,WUHU216HW,2013-03-02 11:05:00,
2013-03-02 06:09:00,32.0,28.4,29.85,NW,315,0.0,0.0,86,0.00,,,0.00,WUHU216HW,2013-03-02 11:09:00,
2013-03-02 06:10:00,32.0,28.4,29.85,NW,315,0.0,0.0,86,0.00,,,0.00,WUHU216HW,2013-03-02 11:10:00,
2013-03-02 06:14:00,32.0,28.4,29.85,NNW,338,1.8,1.8,86,0.00,,,0.00,WUHU216HW,2013-03-02 11:14:00,
2013-03-02 06:15:00,32.0,28.4,29.85,NNW,338,0.6,1.8,86,0.00,,,0.00,WUHU216HW,2013-03-02 11:15:00,
2013-03-02 06:16:00,32.0,28.4,29.85,NNW,338,0.6,1.8,86,0.00,,,0.00,WUHU216HW,2013-03-02 11:16:00,
2013-03-02 06:19:00,32.2,28.5,29.85,NNW,338,0.7,1.8,86,0.00,,,0.00,WUHU216HW,2013-03-02 11:19:00,
2013-03-02 06:21:00,32.2,28.5,29.85,NNW,338,0.9,1.8,86,0.00,,,0.00,WUHU216HW,2013-03-02 11:21:00,
2013-03-02 06:22:00,32.2,28.5,29.85,NNW,338,0.7,1.8,86,0.00,,,0.00,WUHU216HW,2013-03-02 11:22:00,
2013-03-02 06:25:00,32.2,28.8,29.85,NNW,332,0.8,1.1,87,0.00,,,0.00,WUHU216HW,2013-03-02 11:25:00,
2013-03-02 06:26:00,32.2,28.8,29.85,NW,315,0.9,1.1,87,0.00,,,0.00,WUHU216HW,2013-03-02 11:26:00,
2013-03-02 06:27:00,32.2,28.8,29.85,NW,315,1.5,1.6,87,0.00,,,0.00,WUHU216HW,2013-03-02 11:27:00,
2013-03-02 06:30:00,32.4,29.0,29.85,NW,315,0.9,1.6,87,0.00,,,0.00,WUHU216HW,2013-03-02 11:30:00,
2013-03-02 06:31:00,32.2,28.8,29.85,NW,315,1.1,1.6,87,0.00,,,0.00,WUHU216HW,2013-03-02 11:31:00,
2013-03-02 06:32:00,32.4,29.0,29.85,NW,315,0.4,1.6,87,0.00,,,0.00,WUHU216HW,2013-03-02 11:32:00,
2013-03-02 06:35:00,32.4,29.0,29.85,NW,315,0.7,1.6,87,0.00,,,0.00,WUHU216HW,2013-03-02 11:35:00,
2013-03-02 06:36:00,32.4,29.0,29.85,NW,315,0.6,1.3,87,0.00,,,0.00,WUHU216HW,2013-03-02 11:36:00,
2013-03-02 06:38:00,32.4,29.0,29.86,NW,315,0.4,1.1,87,0.00,,,0.00,WUHU216HW,2013-03-02 11:38:00,
2013-03-02 06:41:00,32.4,29.0,29.86,NW,315,0.4,0.9,87,0.00,,,0.00,WUHU216HW,2013-03-02 11:41:00,
2013-03-02 06:42:00,32.4,29.0,29.86,NW,315,1.1,1.1,87,0.00,,,0.00,WUHU216HW,2013-03-02 11:42:00,
2013-03-02 06:43:00,32.6,29.2,29.85,NW,315,1.0,1.1,87,0.00,,,0.00,WUHU216HW,2013-03-02 11:43:00,
2013-03-02 06:46:00,32.6,29.4,29.86,NW,315,1.1,1.1,88,0.00,,,0.00,WUHU216HW,2013-03-02 11:46:00,
2013-03-02 06:47:00,32.6,29.2,29.86,NW,315,1.3,1.3,87,0.00,,,0.00,WUHU216HW,2013-03-02 11:47:00,
2013-03-02 06:48:00,32.6,29.2,29.86,NW,315,1.6,1.6,87,0.00,,,0.00,WUHU216HW,2013-03-02 11:48:00,
2013-03-02 06:52:00,32.8,29.6,29.86,NW,315,1.8,1.8,88,0.00,,,0.00,WUHU216HW,2013-03-02 11:52:00,
2013-03-02 06:53:00,32.8,29.6,29.86,NW,315,3.4,3.4,88,0.00,,,0.00,WUHU216HW,2013-03-02 11:53:00,
2013-03-02 06:55:00,32.8,29.4,29.86,NNW,338,1.1,3.4,87,0.00,,,0.00,WUHU216HW,2013-03-02 11:55:00,
2013-03-02 06:57:00,32.8,29.4,29.86,NNW,338,2.7,3.4,87,0.00,,,0.00,WUHU216HW,2013-03-02 11:57:00,
2013-03-02 06:58:00,32.8,29.4,29.86,NNW,338,2.7,3.4,87,0.00,,,0.00,WUHU216HW,2013-03-02 11:58:00,
2013-03-02 06:59:00,32.8,29.4,29.86,NNW,338,2.7,3.4,87,0.00,,,0.00,WUHU216HW,2013-03-02 11:59:00,
2013-03-02 07:00:00,32.8,29.4,29.86,NW,315,0.9,3.4,87,0.00,,,0.00,WUHU216HW,2013-03-02 12:00:00,
2013-03-02 07:03:00,32.8,29.4,29.86,NW,315,1.8,2.7,87,0.00,,,0.00,WUHU216HW,2013-03-02 12:03:00,
2013-03-02 07:04:00,32.8,29.4,29.86,NW,319,1.1,2.7,87,0.00,,,0.00,WUHU216HW,2013-03-02 12:04:00,
2013-03-02 07:06:00,32.8,29.4,29.86,NW,315,2.2,2.7,87,0.00,,,0.00,WUHU216HW,2013-03-02 12:06:00,
2013-03-02 07:08:00,32.8,29.4,29.86,NW,325,1.2,2.2,87,0.00,,,0.00,WUHU216HW,2013-03-02 12:08:00,
2013-03-02 07:09:00,32.8,29.6,29.86,North,0,1.8,2.2,88,0.00,,,0.00,WUHU216HW,2013-03-02 12:09:00,
2013-03-02 07:10:00,32.8,29.6,29.86,North,0,1.8,2.2,88,0.00,,,0.00,WUHU216HW,2013-03-02 12:10:00,
2013-03-02 07:11:00,32.8,29.6,29.86,NNW,338,2.0,2.2,88,0.00,,,0.00,WUHU216HW,2013-03-02 12:11:00,
2013-03-02 07:13:00,32.9,29.4,29.86,NNW,338,1.1,2.2,87,0.00,,,0.00,WUHU216HW,2013-03-02 12:13:00,
2013-03-02 07:15:00,32.9,29.4,29.86,NW,315,1.8,2.2,87,0.00,,,0.00,WUHU216HW,2013-03-02 12:15:00,
2013-03-02 07:17:00,32.9,29.4,29.86,North,0,0.9,2.0,87,0.00,,,0.00,WUHU216HW,2013-03-02 12:17:00,
2013-03-02 07:18:00,32.8,29.4,29.86,North,0,1.6,2.0,87,0.00,,,0.00,WUHU216HW,2013-03-02 12:18:00,
2013-03-02 07:20:00,32.9,29.4,29.86,NNW,338,1.8,2.0,87,0.00,,,0.00,WUHU216HW,2013-03-02 12:20:00,
2013-03-02 07:21:00,32.9,29.4,29.86,NNW,343,0.8,1.8,87,0.00,,,0.00,WUHU216HW,2013-03-02 12:21:00,
2013-03-02 07:22:00,32.9,29.4,29.86,NNW,338,1.3,1.8,87,0.00,,,0.00,WUHU216HW,2013-03-02 12:22:00,
2013-03-02 07:24:00,32.9,29.4,29.86,NNW,338,1.1,1.8,87,0.00,,,0.00,WUHU216HW,2013-03-02 12:24:00,
2013-03-02 07:25:00,32.9,29.4,29.86,NNW,338,0.8,1.8,87,0.00,,,0.00,WUHU216HW,2013-03-02 12:25:00,
2013-03-02 07:27:00,32.9,29.4,29.86,NNW,338,1.5,1.8,87,0.00,,,0.00,WUHU216HW,2013-03-02 12:27:00,
2013-03-02 07:28:00,32.9,29.4,29.86,NNW,338,1.5,1.8,87,0.00,,,0.00,WUHU216HW,2013-03-02 12:28:00,
2013-03-02 07:30:00,33.1,29.6,29.86,WNW,293,2.2,2.2,87,0.00,,,0.00,WUHU216HW,2013-03-02 12:30:00,
2013-03-02 07:32:00,33.3,29.8,29.86,NW,324,1.5,2.2,87,0.00,,,0.00,WUHU216HW,2013-03-02 12:32:00,
2013-03-02 07:33:00,33.3,29.8,29.86,NW,315,2.7,2.7,87,0.00,,,0.00,WUHU216HW,2013-03-02 12:33:00,
2013-03-02 07:35:00,33.3,29.8,29.86,NNW,338,1.1,2.7,87,0.00,,,0.00,WUHU216HW,2013-03-02 12:35:00,
2013-03-02 07:37:00,33.5,29.7,29.86,NNW,332,0.8,2.7,86,0.00,,,0.00,WUHU216HW,2013-03-02 12:37:00,
2013-03-02 07:38:00,33.5,30.0,29.86,North,0,1.1,2.7,87,0.00,,,0.00,WUHU216HW,2013-03-02 12:38:00,
2013-03-02 07:39:00,33.5,30.0,29.86,North,0,1.1,2.7,87,0.00,,,0.00,WUHU216HW,2013-03-02 12:39:00,
2013-03-02 07:40:00,33.7,29.8,29.86,NNW,338,0.4,2.7,86,0.00,,,0.00,WUHU216HW,2013-03-02 12:40:00,
2013-03-02 07:42:00,34.0,30.2,29.86,NNE,23,1.3,1.3,86,0.00,,,0.00,WUHU216HW,2013-03-02 12:42:00,
2013-03-02 07:44:00,34.0,30.2,29.86,NNW,338,2.0,2.0,86,0.00,,,0.00,WUHU216HW,2013-03-02 12:44:00,
2013-03-02 07:45:00,34.2,30.3,29.86,NNW,338,1.8,2.0,86,0.00,,,0.00,WUHU216HW,2013-03-02 12:45:00,
2013-03-02 07:47:00,34.4,30.5,29.86,North,0,1.1,2.0,86,0.00,,,0.00,WUHU216HW,2013-03-02 12:47:00,
2013-03-02 07:49:00,34.6,30.7,29.86,NNW,338,1.3,2.0,86,0.00,,,0.00,WUHU216HW,2013-03-02 12:49:00,
2013-03-02 07:50:00,34.6,30.7,29.86,NNW,338,1.3,2.0,86,0.00,,,0.00,WUHU216HW,2013-03-02 12:50:00,
2013-03-02 07:51:00,34.7,30.9,29.86,NNW,338,1.2,2.0,86,0.00,,,0.00,WUHU216HW,2013-03-02 12:51:00,
2013-03-02 07:53:00,34.7,30.6,29.87,NNW,338,0.9,2.0,85,0.00,,,0.00,WUHU216HW,2013-03-02 12:53:00,
2013-03-02 07:55:00,34.9,30.8,29.86,NNW,338,1.6,1.8,85,0.00,,,0.00,WUHU216HW,2013-03-02 12:55:00,
2013-03-02 07:58:00,34.9,30.5,29.87,NNW,345,1.7,2.2,84,0.00,,,0.00,WUHU216HW,2013-03-02 12:58:00,
2013-03-02 08:00:00,35.1,30.7,29.87,NW,323,1.4,2.2,84,0.00,,,0.00,WUHU216HW,2013-03-02 13:00:00,
2013-03-02 08:01:00,35.1,30.7,29.86,North,350,1.2,2.2,84,0.00,,,0.00,WUHU216HW,2013-03-02 13:01:00,
2013-03-02 08:05:00,35.3,30.9,29.86,North,0,3.4,3.4,84,0.00,,,0.00,WUHU216HW,2013-03-02 13:05:00,
2013-03-02 08:06:00,35.3,30.9,29.86,North,0,3.4,3.4,84,0.00,,,0.00,WUHU216HW,2013-03-02 13:06:00,
2013-03-02 08:07:00,35.3,30.9,29.87,NNW,341,1.5,3.4,84,0.00,,,0.00,WUHU216HW,2013-03-02 13:07:00,
2013-03-02 08:11:00,35.3,30.9,29.87,NW,316,1.3,3.4,84,0.01,,,0.01,WUHU216HW,2013-03-02 13:11:00,
2013-03-02 08:12:00,35.5,30.8,29.87,NNW,338,2.2,3.4,83,0.01,,,0.01,WUHU216HW,2013-03-02 13:12:00,
2013-03-02 08:16:00,35.5,30.2,29.87,NNW,338,1.8,3.8,81,0.01,,,0.01,WUHU216HW,2013-03-02 13:16:00,
2013-03-02 08:17:00,35.5,30.2,29.87,NNW,338,1.8,3.8,81,0.01,,,0.01,WUHU216HW,2013-03-02 13:17:00,
2013-03-02 08:18:00,35.6,30.3,29.87,WNW,293,4.0,4.0,81,0.01,,,0.01,WUHU216HW,2013-03-02 13:18:00,
2013-03-02 08:21:00,35.5,29.9,29.87,WNW,294,3.1,5.8,80,0.01,,,0.01,WUHU216HW,2013-03-02 13:21:00,
2013-03-02 08:22:00,35.5,30.2,29.87,NW,315,2.9,5.8,81,0.01,,,0.01,WUHU216HW,2013-03-02 13:22:00,
2013-03-02 08:23:00,35.6,30.1,29.87,North,0,3.6,5.8,80,0.01,,,0.01,WUHU216HW,2013-03-02 13:23:00,
2013-03-02 08:24:00,35.6,30.1,29.87,North,0,3.6,5.8,80,0.01,,,0.01,WUHU216HW,2013-03-02 13:24:00,
2013-03-02 08:27:00,35.6,30.3,29.88,WNW,293,1.6,5.8,81,0.01,,,0.01,WUHU216HW,2013-03-02 13:27:00,
2013-03-02 08:28:00,35.6,30.1,29.88,North,0,4.0,5.8,80,0.01,,,0.01,WUHU216HW,2013-03-02 13:28:00,
2013-03-02 08:29:00,35.6,29.7,29.88,North,352,3.1,5.8,79,0.01,,,0.01,WUHU216HW,2013-03-02 13:29:00,
2013-03-02 08:32:00,35.6,29.7,29.88,NW,315,4.5,4.5,79,0.01,,,0.01,WUHU216HW,2013-03-02 13:32:00,
2013-03-02 08:33:00,35.6,29.7,29.88,NW,315,4.5,4.5,79,0.01,,,0.01,WUHU216HW,2013-03-02 13:33:00,
2013-03-02 08:35:00,35.6,29.4,29.88,NNW,338,4.5,4.5,78,0.01,,,0.01,WUHU216HW,2013-03-02 13:35:00,
2013-03-02 08:36:00,35.6,29.1,29.88,NNW,328,4.0,4.5,77,0.01,,,0.01,WUHU216HW,2013-03-02 13:36:00,
2013-03-02 08:39:00,35.5,28.9,29.88,NW,322,2.7,4.5,77,0.01,,,0.01,WUHU216HW,2013-03-02 13:39:00,
2013-03-02 08:41:00,35.5,29.3,29.88,NW,322,4.1,5.6,78,0.01,,,0.01,WUHU216HW,2013-03-02 13:41:00,
2013-03-02 08:42:00,35.5,29.3,29.88,NW,319,2.2,5.6,78,0.01,,,0.01,WUHU216HW,2013-03-02 13:42:00,
2013-03-02 08:44:00,35.5,28.9,29.88,NNW,336,4.3,5.6,77,0.01,,,0.01,WUHU216HW,2013-03-02 13:44:00,
2013-03-02 08:47:00,35.6,28.8,29.88,West,270,6.9,6.9,76,0.01,,,0.01,WUHU216HW,2013-03-02 13:47:00,
2013-03-02 08:48:00,35.5,28.6,29.89,West,280,6.2,6.9,76,0.01,,,0.01,WUHU216HW,2013-03-02 13:48:00,
2013-03-02 08:49:00,35.5,28.6,29.89,North,0,4.0,6.9,76,0.01,,,0.01,WUHU216HW,2013-03-02 13:49:00,
2013-03-02 08:50:00,35.5,28.6,29.89,North,0,4.0,6.9,76,0.01,,,0.01,WUHU216HW,2013-03-02 13:50:00,
2013-03-02 08:53:00,35.6,29.1,29.88,WNW,293,1.8,6.9,77,0.01,,,0.01,WUHU216HW,2013-03-02 13:53:00,
2013-03-02 08:55:00,35.6,28.8,29.88,NNW,338,3.4,6.9,76,0.01,,,0.01,WUHU216HW,2013-03-02 13:55:00,
2013-03-02 08:56:00,35.6,29.1,29.89,North,355,2.8,6.9,77,0.01,,,0.01,WUHU216HW,2013-03-02 13:56:00,
2013-03-02 08:59:00,35.6,28.8,29.88,WNW,299,3.7,5.4,76,0.01,,,0.01,WUHU216HW,2013-03-02 13:59:00,
2013-03-02 09:01:00,35.6,29.1,29.88,West,270,2.7,5.4,77,0.01,,,0.01,WUHU216HW,2013-03-02 14:01:00,
2013-03-02 09:04:00,35.6,29.1,29.88,NW,315,3.1,5.4,77,0.01,,,0.01,WUHU216HW,2013-03-02 14:04:00,
2013-03-02 09:06:00,35.6,29.1,29.88,North,5,2.3,5.4,77,0.01,,,0.01,WUHU216HW,2013-03-02 14:06:00,
2013-03-02 09:08:00,35.6,29.4,29.88,North,0,3.1,3.4,78,0.00,,,0.01,WUHU216HW,2013-03-02 14:08:00,
2013-03-02 09:09:00,35.6,29.4,29.89,North,349,2.3,3.4,78,0.00,,,0.01,WUHU216HW,2013-03-02 14:09:00,
2013-03-02 09:11:00,35.6,29.1,29.89,North,0,2.5,3.4,77,0.00,,,0.01,WUHU216HW,2013-03-02 14:11:00,
2013-03-02 09:12:00,35.6,29.1,29.89,North,0,2.5,3.4,77,0.00,,,0.01,WUHU216HW,2013-03-02 14:12:00,
2013-03-02 09:13:00,35.5,28.9,29.89,North,0,1.8,3.4,77,0.00,,,0.01,WUHU216HW,2013-03-02 14:13:00,
2013-03-02 09:15:00,35.3,29.1,29.89,North,352,1.8,3.4,78,0.00,,,0.01,WUHU216HW,2013-03-02 14:15:00,
2013-03-02 09:17:00,35.3,29.1,29.89,NNE,23,2.5,3.1,78,0.00,,,0.01,WUHU216HW,2013-03-02 14:17:00,
2013-03-02 09:18:00,35.3,29.1,29.89,NNE,23,2.0,2.5,78,0.00,,,0.01,WUHU216HW,2013-03-02 14:18:00,
2013-03-02 09:20:00,35.3,29.1,29.89,North,0,1.5,2.5,78,0.00,,,0.01,WUHU216HW,2013-03-02 14:20:00,
2013-03-02 09:23:00,35.5,29.3,29.89,NNW,338,2.0,2.5,78,0.00,,,0.01,WUHU216HW,2013-03-02 14:23:00,
2013-03-02 09:24:00,35.5,29.3,29.89,North,0,2.2,2.5,78,0.00,,,0.01,WUHU216HW,2013-03-02 14:24:00,
2013-03-02 09:26:00,35.5,29.3,29.89,NNW,348,1.7,2.5,78,0.00,,,0.01,WUHU216HW,2013-03-02 14:26:00,
2013-03-02 09:28:00,35.5,29.3,29.89,North,0,4.7,4.7,78,0.00,,,0.01,WUHU216HW,2013-03-02 14:28:00,
2013-03-02 09:29:00,35.5,29.3,29.89,North,353,3.3,4.7,78,0.00,,,0.01,WUHU216HW,2013-03-02 14:29:00,
2013-03-02 09:30:00,35.5,29.3,29.89,North,353,3.3,4.7,78,0.00,,,0.01,WUHU216HW,2013-03-02 14:30:00,
2013-03-02 09:31:00,35.6,29.4,29.89,North,353,1.5,4.7,78,0.00,,,0.01,WUHU216HW,2013-03-02 14:31:00,
2013-03-02 09:34:00,35.6,29.4,29.89,North,0,2.2,4.7,78,0.00,,,0.01,WUHU216HW,2013-03-02 14:34:00,
2013-03-02 09:35:00,35.6,29.4,29.89,NNW,338,2.5,4.7,78,0.00,,,0.01,WUHU216HW,2013-03-02 14:35:00,
2013-03-02 09:36:00,35.8,29.6,29.89,North,353,2.7,4.7,78,0.00,,,0.01,WUHU216HW,2013-03-02 14:36:00,
2013-03-02 09:40:00,36.2,30.0,29.89,NW,324,2.2,3.8,78,0.00,,,0.01,WUHU216HW,2013-03-02 14:40:00,
2013-03-02 09:43:00,36.4,30.2,29.89,North,0,2.0,3.8,78,0.00,,,0.01,WUHU216HW,2013-03-02 14:43:00,
2013-03-02 09:45:00,36.7,30.2,29.89,NNW,341,3.6,4.9,77,0.00,,,0.01,WUHU216HW,2013-03-02 14:45:00,
2013-03-02 09:48:00,36.9,30.1,29.89,NW,315,3.4,4.9,76,0.00,,,0.01,WUHU216HW,2013-03-02 14:48:00,
2013-03-02 09:50:00,37.1,30.5,29.89,NNW,338,2.7,4.9,77,0.00,,,0.01,WUHU216HW,2013-03-02 14:50:00,
2013-03-02 09:51:00,37.1,30.5,29.89,NNW,338,2.7,4.9,77,0.00,,,0.01,WUHU216HW,2013-03-02 14:51:00,
2013-03-02 09:52:00,37.1,30.5,29.89,North,0,2.7,4.9,77,0.00,,,0.01,WUHU216HW,2013-03-02 14:52:00,
2013-03-02 09:53:00,37.1,30.5,29.89,NNW,342,2.3,3.4,77,0.00,,,0.01,WUHU216HW,2013-03-02 14:53:00,
2013-03-02 09:56:00,37.3,30.1,29.89,NNE,12,3.5,3.6,75,0.00,,,0.01,WUHU216HW,2013-03-02 14:56:00,
2013-03-02 09:59:00,37.1,30.3,29.89,North,5,2.5,4.0,76,0.00,,,0.01,WUHU216HW,2013-03-02 14:59:00,
2013-03-02 10:01:00,36.9,29.3,29.89,NNW,338,4.9,4.9,74,0.00,,,0.01,WUHU216HW,2013-03-02 15:01:00,
2013-03-02 10:04:00,36.7,28.9,29.89,NW,315,2.7,4.9,73,0.00,,,0.01,WUHU216HW,2013-03-02 15:04:00,
2013-03-02 10:05:00,36.7,28.9,29.89,NW,315,2.7,4.9,73,0.00,,,0.01,WUHU216HW,2013-03-02 15:05:00,
2013-03-02 10:06:00,36.4,28.2,29.89,WNW,293,3.8,4.9,72,0.00,,,0.01,WUHU216HW,2013-03-02 15:06:00,
2013-03-02 10:07:00,36.4,28.2,29.89,NW,310,3.2,4.9,72,0.00,,,0.01,WUHU216HW,2013-03-02 15:07:00,
2013-03-02 10:09:00,36.2,28.0,29.89,NNW,338,2.5,4.9,72,0.00,,,0.01,WUHU216HW,2013-03-02 15:09:00,
2013-03-02 10:10:00,36.2,28.4,29.89,North,0,3.8,4.9,73,0.00,,,0.01,WUHU216HW,2013-03-02 15:10:00,
2013-03-02 10:11:00,36.2,28.4,29.89,North,353,2.7,4.0,73,0.00,,,0.01,WUHU216HW,2013-03-02 15:11:00,
2013-03-02 10:13:00,36.0,28.2,29.89,North,0,3.4,3.8,73,0.00,,,0.01,WUHU216HW,2013-03-02 15:13:00,
2013-03-02 10:14:00,36.0,28.2,29.89,North,0,3.4,3.8,73,0.00,,,0.01,WUHU216HW,2013-03-02 15:14:00,
2013-03-02 10:16:00,36.0,28.2,29.89,NNW,348,2.3,3.8,73,0.00,,,0.01,WUHU216HW,2013-03-02 15:16:00,
2013-03-02 10:17:00,36.2,28.4,29.89,WNW,293,3.4,3.8,73,0.00,,,0.01,WUHU216HW,2013-03-02 15:17:00,
2013-03-02 10:19:00,36.0,28.2,29.89,North,0,3.6,3.8,73,0.00,,,0.01,WUHU216HW,2013-03-02 15:19:00,
2013-03-02 10:21:00,36.0,28.2,29.89,NNW,338,2.7,3.6,73,0.00,,,0.01,WUHU216HW,2013-03-02 15:21:00,
2013-03-02 10:23:00,36.2,28.4,29.89,NW,315,2.5,3.6,73,0.00,,,0.01,WUHU216HW,2013-03-02 15:23:00,
2013-03-02 10:24:00,36.2,28.4,29.89,North,0,4.0,4.0,73,0.00,,,0.01,WUHU216HW,2013-03-02 15:24:00,
2013-03-02 10:25:00,36.2,28.4,29.89,North,0,4.0,4.0,73,0.00,,,0.01,WUHU216HW,2013-03-02 15:25:00,
2013-03-02 10:26:00,36.2,28.4,29.89,NNW,338,4.3,4.7,73,0.00,,,0.01,WUHU216HW,2013-03-02 15:26:00,
2013-03-02 10:28:00,36.0,28.2,29.89,North,350,4.2,4.7,73,0.00,,,0.01,WUHU216HW,2013-03-02 15:28:00,
2013-03-02 10:30:00,36.0,28.2,29.89,NNW,338,3.4,4.7,73,0.00,,,0.01,WUHU216HW,2013-03-02 15:30:00,
2013-03-02 10:32:00,36.0,28.2,29.89,NNW,338,2.5,4.7,73,0.00,,,0.01,WUHU216HW,2013-03-02 15:32:00,
2013-03-02 10:33:00,36.0,28.2,29.89,NNW,338,2.5,4.7,73,0.00,,,0.01,WUHU216HW,2013-03-02 15:33:00,
2013-03-02 10:34:00,36.0,28.2,29.89,North,0,4.0,4.7,73,0.00,,,0.01,WUHU216HW,2013-03-02 15:34:00,
2013-03-02 10:35:00,36.0,28.2,29.89,NNW,339,3.7,4.7,73,0.00,,,0.01,WUHU216HW,2013-03-02 15:35:00,
2013-03-02 10:38:00,36.0,27.8,29.89,NW,315,3.3,4.5,72,0.00,,,0.01,WUHU216HW,2013-03-02 15:38:00,
2013-03-02 10:39:00,36.2,28.4,29.89,NNW,338,2.2,4.5,73,0.00,,,0.01,WUHU216HW,2013-03-02 15:39:00,
2013-03-02 10:40:00,36.2,28.4,29.89,NNW,338,2.0,4.5,73,0.00,,,0.01,WUHU216HW,2013-03-02 15:40:00,
2013-03-02 10:43:00,36.2,28.4,29.89,WNW,293,4.9,4.9,73,0.00,,,0.01,WUHU216HW,2013-03-02 15:43:00,
2013-03-02 10:44:00,36.2,28.4,29.89,NW,318,3.2,4.9,73,0.00,,,0.01,WUHU216HW,2013-03-02 15:44:00,
2013-03-02 10:46:00,36.2,28.0,29.89,WNW,293,5.6,5.6,72,0.00,,,0.01,WUHU216HW,2013-03-02 15:46:00,
2013-03-02 10:48:00,36.4,28.2,29.89,NNW,328,2.5,5.6,72,0.00,,,0.01,WUHU216HW,2013-03-02 15:48:00,
2013-03-02 10:50:00,36.2,27.7,29.89,WNW,293,5.4,5.6,71,0.00,,,0.01,WUHU216HW,2013-03-02 15:50:00,
2013-03-02 10:52:00,36.0,27.2,29.90,WNW,293,3.6,5.6,70,0.00,,,0.01,WUHU216HW,2013-03-02 15:52:00,
2013-03-02 10:53:00,36.0,27.6,29.89,WNW,302,3.0,5.6,71,0.00,,,0.01,WUHU216HW,2013-03-02 15:53:00,
2013-03-02 10:54:00,36.0,27.6,29.89,NW,315,2.9,5.6,71,0.00,,,0.01,WUHU216HW,2013-03-02 15:54:00,
2013-03-02 10:55:00,36.0,27.8,29.89,WNW,293,3.6,5.6,72,0.00,,,0.01,WUHU216HW,2013-03-02 15:55:00,
2013-03-02 10:58:00,36.0,27.6,29.89,WNW,284,2.9,6.0,71,0.00,,,0.01,WUHU216HW,2013-03-02 15:58:00,
2013-03-02 10:59:00,36.0,27.6,29.89,WNW,293,4.5,6.0,71,0.00,,,0.01,WUHU216HW,2013-03-02 15:59:00,
2013-03-02 11:00:00,36.2,27.7,29.90,West,270,4.7,6.0,71,0.00,,,0.01,WUHU216HW,2013-03-02 16:00:00,
2013-03-02 11:03:00,36.2,27.7,29.89,NW,315,3.6,6.0,71,0.00,,,0.01,WUHU216HW,2013-03-02 16:03:00,
2013-03-02 11:05:00,36.4,28.2,29.89,NNW,338,1.8,6.0,72,0.00,,,0.01,WUHU216HW,2013-03-02 16:05:00,
2013-03-02 11:06:00,36.5,28.4,29.90,NNW,338,1.8,4.7,72,0.00,,,0.01,WUHU216HW,2013-03-02 16:06:00,
2013-03-02 11:08:00,36.7,28.3,29.90,NW,315,2.5,4.7,71,0.00,,,0.01,WUHU216HW,2013-03-02 16:08:00,
2013-03-02 11:10:00,36.7,27.9,29.90,NW,315,3.8,3.8,70,0.00,,,0.01,WUHU216HW,2013-03-02 16:10:00,
2013-03-02 11:11:00,36.7,27.9,29.90,NW,315,3.3,3.8,70,0.00,,,0.01,WUHU216HW,2013-03-02 16:11:00,
2013-03-02 11:12:00,36.7,27.9,29.90,NW,315,3.3,3.8,70,0.00,,,0.01,WUHU216HW,2013-03-02 16:12:00,
2013-03-02 11:14:00,36.9,28.1,29.90,WNW,293,4.0,4.0,70,0.00,,,0.01,WUHU216HW,2013-03-02 16:14:00,
2013-03-02 11:16:00,36.7,27.2,29.90,NNW,329,4.0,5.4,68,0.00,,,0.01,WUHU216HW,2013-03-02 16:16:00,
2013-03-02 11:17:00,36.7,27.2,29.90,West,270,3.8,5.4,68,0.00,,,0.01,WUHU216HW,2013-03-02 16:17:00,
2013-03-02 11:19:00,36.7,27.6,29.90,WNW,286,3.0,5.4,69,0.00,,,0.01,WUHU216HW,2013-03-02 16:19:00,
2013-03-02 11:21:00,36.7,27.6,29.90,NW,315,2.0,5.4,69,0.00,,,0.01,WUHU216HW,2013-03-02 16:21:00,
2013-03-02 11:23:00,36.7,27.6,29.90,NW,315,1.2,5.4,69,0.00,,,0.01,WUHU216HW,2013-03-02 16:23:00,
2013-03-02 11:24:00,36.7,27.6,29.90,North,0,2.5,5.4,69,0.00,,,0.01,WUHU216HW,2013-03-02 16:24:00,
2013-03-02 11:26:00,36.7,27.9,29.90,NW,315,1.6,3.8,70,0.00,,,0.01,WUHU216HW,2013-03-02 16:26:00,
2013-03-02 11:29:00,36.9,28.5,29.90,NW,315,2.7,3.4,71,0.00,,,0.01,WUHU216HW,2013-03-02 16:29:00,
2013-03-02 11:30:00,36.7,27.6,29.90,NW,315,3.4,3.4,69,0.00,,,0.01,WUHU216HW,2013-03-02 16:30:00,
2013-03-02 11:31:00,36.7,27.2,29.90,WNW,298,2.8,3.4,68,0.00,,,0.01,WUHU216HW,2013-03-02 16:31:00,
2013-03-02 11:32:00,36.7,27.6,29.90,WNW,293,3.6,3.6,69,0.00,,,0.01,WUHU216HW,2013-03-02 16:32:00,
2013-03-02 11:35:00,36.5,27.7,29.90,North,0,2.5,3.6,70,0.00,,,0.01,WUHU216HW,2013-03-02 16:35:00,
2013-03-02 11:36:00,36.5,27.4,29.90,North,0,2.2,3.6,69,0.00,,,0.01,WUHU216HW,2013-03-02 16:36:00,
2013-03-02 11:38:00,36.5,26.7,29.90,NNW,330,2.6,3.6,67,0.00,,,0.01,WUHU216HW,2013-03-02 16:38:00,
2013-03-02 11:40:00,36.4,27.2,29.90,WNW,298,4.1,6.0,69,0.00,,,0.01,WUHU216HW,2013-03-02 16:40:00,
2013-03-02 11:41:00,36.4,27.2,29.90,WNW,293,2.2,6.0,69,0.00,,,0.01,WUHU216HW,2013-03-02 16:41:00,
2013-03-02 11:43:00,36.4,27.2,29.90,NNW,338,2.5,6.0,69,0.00,,,0.01,WUHU216HW,2013-03-02 16:43:00,
2013-03-02 11:46:00,36.4,26.8,29.90,NW,315,3.0,6.0,68,0.00,,,0.01,WUHU216HW,2013-03-02 16:46:00,
2013-03-02 11:47:00,36.4,26.8,29.90,WNW,293,4.0,6.0,68,0.00,,,0.01,WUHU216HW,2013-03-02 16:47:00,
2013-03-02 11:48:00,36.4,26.8,29.90,WNW,283,3.3,6.0,68,0.00,,,0.01,WUHU216HW,2013-03-02 16:48:00,
2013-03-02 11:52:00,36.4,26.8,29.90,NW,323,3.1,4.7,68,0.00,,,0.01,WUHU216HW,2013-03-02 16:52:00,
2013-03-02 11:53:00,36.5,27.0,29.90,WNW,293,3.8,4.7,68,0.00,,,0.01,WUHU216HW,2013-03-02 16:53:00,
2013-03-02 11:57:00,36.9,27.4,29.90,North,0,2.0,4.0,68,0.00,,,0.01,WUHU216HW,2013-03-02 16:57:00,
2013-03-02 11:58:00,36.9,27.7,29.90,North,352,1.5,4.0,69,0.00,,,0.01,WUHU216HW,2013-03-02 16:58:00,
2013-03-02 11:59:00,37.1,27.9,29.90,NNW,338,3.6,4.0,69,0.00,,,0.01,WUHU216HW,2013-03-02 16:59:00,
2013-03-02 12:02:00,37.1,27.2,29.90,West,276,2.7,4.0,67,0.00,,,0.01,WUHU216HW,2013-03-02 17:02:00,
2013-03-02 12:03:00,37.1,27.2,29.90,North,0,2.2,4.0,67,0.00,,,0.01,WUHU216HW,2013-03-02 17:03:00,
2013-03-02 12:04:00,37.1,27.2,29.90,North,0,2.2,4.0,67,0.00,,,0.01,WUHU216HW,2013-03-02 17:04:00,
2013-03-02 12:09:00,37.3,27.3,29.90,North,0,3.4,4.0,67,0.00,,,0.01,WUHU216HW,2013-03-02 17:09:00,
2013-03-02 12:14:00,37.4,27.5,29.90,NNW,338,4.7,4.7,67,0.00,,,0.01,WUHU216HW,2013-03-02 17:14:00,
2013-03-02 12:15:00,37.4,27.5,29.90,NNW,338,6.3,6.3,67,0.00,,,0.01,WUHU216HW,2013-03-02 17:15:00,
2013-03-02 12:19:00,37.4,27.5,29.90,West,270,3.8,6.3,67,0.00,,,0.01,WUHU216HW,2013-03-02 17:19:00,
2013-03-02 12:20:00,37.3,27.3,29.90,West,277,2.8,6.3,67,0.00,,,0.01,WUHU216HW,2013-03-02 17:20:00,
2013-03-02 12:21:00,37.4,27.1,29.90,West,270,4.5,6.3,66,0.00,,,0.01,WUHU216HW,2013-03-02 17:21:00,
2013-03-02 12:24:00,37.3,26.9,29.90,NW,315,4.0,6.3,66,0.00,,,0.01,WUHU216HW,2013-03-02 17:24:00,
2013-03-02 12:25:00,37.3,26.9,29.90,NW,315,4.0,6.3,66,0.00,,,0.01,WUHU216HW,2013-03-02 17:25:00,
2013-03-02 12:27:00,37.1,26.7,29.90,NW,315,4.5,5.1,66,0.00,,,0.01,WUHU216HW,2013-03-02 17:27:00,
2013-03-02 12:29:00,37.1,26.7,29.90,NNW,348,2.3,5.1,66,0.00,,,0.01,WUHU216HW,2013-03-02 17:29:00,
2013-03-02 12:30:00,37.1,26.7,29.90,NNW,348,2.3,5.1,66,0.00,,,0.01,WUHU216HW,2013-03-02 17:30:00,
2013-03-02 12:33:00,37.1,26.4,29.90,NW,315,6.3,6.3,65,0.00,,,0.01,WUHU216HW,2013-03-02 17:33:00,
2013-03-02 12:35:00,37.1,26.7,29.90,WNW,283,4.1,6.3,66,0.00,,,0.01,WUHU216HW,2013-03-02 17:35:00,
2013-03-02 12:37:00,37.1,27.2,29.90,NW,315,2.3,6.3,67,0.00,,,0.01,WUHU216HW,2013-03-02 17:37:00,
2013-03-02 12:38:00,37.1,27.2,29.90,NW,315,3.4,6.3,67,0.00,,,0.01,WUHU216HW,2013-03-02 17:38:00,
2013-03-02 12:40:00,37.1,27.2,29.90,WNW,293,3.4,6.3,67,0.00,,,0.01,WUHU216HW,2013-03-02 17:40:00,
2013-03-02 12:41:00,37.1,27.2,29.90,WNW,293,4.0,6.3,67,0.00,,,0.01,WUHU216HW,2013-03-02 17:41:00,
2013-03-02 12:42:00,37.1,27.2,29.90,WNW,293,4.5,6.3,67,0.00,,,0.01,WUHU216HW,2013-03-02 17:42:00,
2013-03-02 12:44:00,37.1,26.4,29.89,NW,323,4.7,5.4,65,0.00,,,0.01,WUHU216HW,2013-03-02 17:44:00,
2013-03-02 12:46:00,37.1,26.7,29.90,WNW,293,3.6,5.4,66,0.00,,,0.01,WUHU216HW,2013-03-02 17:46:00,
2013-03-02 12:48:00,37.1,26.7,29.89,West,270,3.1,5.4,66,0.00,,,0.01,WUHU216HW,2013-03-02 17:48:00,
2013-03-02 12:49:00,37.1,26.7,29.89,WNW,293,3.8,5.4,66,0.00,,,0.01,WUHU216HW,2013-03-02 17:49:00,
2013-03-02 12:51:00,37.1,26.7,29.89,NW,315,4.0,5.4,66,0.00,,,0.01,WUHU216HW,2013-03-02 17:51:00,
2013-03-02 12:53:00,37.1,26.7,29.89,NW,324,2.7,4.7,66,0.00,,,0.01,WUHU216HW,2013-03-02 17:53:00,
2013-03-02 12:55:00,37.1,27.2,29.89,NW,315,1.7,4.7,67,0.00,,,0.01,WUHU216HW,2013-03-02 17:55:00,
2013-03-02 12:56:00,37.1,27.2,29.89,NNW,338,2.9,4.7,67,0.00,,,0.01,WUHU216HW,2013-03-02 17:56:00,
2013-03-02 12:57:00,37.3,27.3,29.89,NW,319,1.9,4.5,67,0.00,,,0.01,WUHU216HW,2013-03-02 17:57:00,
2013-03-02 12:58:00,37.4,27.5,29.89,WNW,293,3.6,4.5,67,0.00,,,0.01,WUHU216HW,2013-03-02 17:58:00,
2013-03-02 13:01:00,37.4,27.1,29.89,WNW,293,3.0,4.5,66,0.00,,,0.01,WUHU216HW,2013-03-02 18:01:00,
2013-03-02 13:02:00,37.3,26.9,29.89,WNW,303,3.2,3.6,66,0.00,,,0.01,WUHU216HW,2013-03-02 18:02:00,
2013-03-02 13:03:00,37.4,27.1,29.89,West,270,2.9,3.6,66,0.00,,,0.01,WUHU216HW,2013-03-02 18:03:00,
2013-03-02 13:06:00,37.6,27.6,29.89,WNW,293,4.0,4.0,67,0.00,,,0.01,WUHU216HW,2013-03-02 18:06:00,
2013-03-02 13:07:00,37.6,27.6,29.89,WNW,285,3.1,4.0,67,0.00,,,0.01,WUHU216HW,2013-03-02 18:07:00,
2013-03-02 13:09:00,37.8,27.8,29.89,WNW,293,5.1,5.1,67,0.00,,,0.01,WUHU216HW,2013-03-02 18:09:00,
2013-03-02 13:11:00,38.3,28.3,29.88,WNW,289,1.3,5.1,67,0.00,,,0.01,WUHU216HW,2013-03-02 18:11:00,
2013-03-02 13:13:00,38.5,27.7,29.88,WNW,293,1.8,5.1,65,0.00,,,0.01,WUHU216HW,2013-03-02 18:13:00,
2013-03-02 13:14:00,38.9,28.8,29.88,WNW,290,2.9,5.1,67,0.00,,,0.01,WUHU216HW,2013-03-02 18:14:00,
2013-03-02 13:17:00,39.1,28.2,29.88,WNW,300,3.6,5.1,65,0.00,,,0.01,WUHU216HW,2013-03-02 18:17:00,
2013-03-02 13:18:00,39.2,28.7,29.89,WSW,239,1.5,4.7,66,0.00,,,0.01,WUHU216HW,2013-03-02 18:18:00,
2013-03-02 13:19:00,39.2,28.7,29.88,WSW,248,2.0,4.7,66,0.00,,,0.01,WUHU216HW,2013-03-02 18:19:00,
2013-03-02 13:20:00,39.2,28.7,29.88,WSW,248,2.0,4.7,66,0.00,,,0.01,WUHU216HW,2013-03-02 18:20:00,
2013-03-02 13:22:00,39.6,28.4,29.88,North,0,7.4,7.4,64,0.00,,,0.01,WUHU216HW,2013-03-02 18:22:00,
2013-03-02 13:23:00,39.6,28.0,29.88,North,352,5.7,7.4,63,0.00,,,0.01,WUHU216HW,2013-03-02 18:23:00,
2013-03-02 13:24:00,39.6,28.0,29.88,WSW,248,5.6,7.4,63,0.00,,,0.01,WUHU216HW,2013-03-02 18:24:00,
2013-03-02 13:25:00,39.6,28.0,29.88,WSW,248,5.6,7.4,63,0.00,,,0.01,WUHU216HW,2013-03-02 18:25:00,
2013-03-02 13:27:00,39.6,28.0,29.88,West,276,5.2,7.6,63,0.00,,,0.01,WUHU216HW,2013-03-02 18:27:00,
2013-03-02 13:29:00,39.6,28.0,29.88,WNW,293,4.0,7.6,63,0.00,,,0.01,WUHU216HW,2013-03-02 18:29:00,
2013-03-02 13:30:00,39.6,28.0,29.88,NW,313,3.7,7.6,63,0.00,,,0.01,WUHU216HW,2013-03-02 18:30:00,
2013-03-02 13:33:00,39.8,28.5,29.87,WSW,255,4.4,7.6,64,0.00,,,0.01,WUHU216HW,2013-03-02 18:33:00,
2013-03-02 13:34:00,40.0,29.4,29.88,WNW,293,3.0,7.6,66,0.00,,,0.01,WUHU216HW,2013-03-02 18:34:00,
2013-03-02 13:35:00,40.1,29.6,29.87,WSW,248,3.6,7.6,66,0.00,,,0.01,WUHU216HW,2013-03-02 18:35:00,
2013-03-02 13:36:00,40.3,29.4,29.87,WNW,293,7.6,7.6,65,0.00,,,0.01,WUHU216HW,2013-03-02 18:36:00,
2013-03-02 13:38:00,40.5,29.3,29.87,West,266,2.7,7.6,64,0.00,,,0.01,WUHU216HW,2013-03-02 18:38:00,
2013-03-02 13:39:00,40.5,28.1,29.88,NW,315,4.0,7.6,61,0.00,,,0.01,WUHU216HW,2013-03-02 18:39:00,
2013-03-02 13:40:00,40.3,28.7,29.87,NW,325,3.7,7.6,63,0.00,,,0.01,WUHU216HW,2013-03-02 18:40:00,
2013-03-02 13:42:00,40.3,27.9,29.88,NNW,334,2.8,7.6,61,0.00,,,0.01,WUHU216HW,2013-03-02 18:42:00,
2013-03-02 13:44:00,40.1,28.5,29.87,North,0,1.8,7.6,63,0.00,,,0.01,WUHU216HW,2013-03-02 18:44:00,
2013-03-02 13:45:00,40.1,28.5,29.87,WNW,293,4.0,4.7,63,0.00,,,0.01,WUHU216HW,2013-03-02 18:45:00,
2013-03-02 13:47:00,40.0,27.5,29.87,NW,315,3.3,4.7,61,0.00,,,0.01,WUHU216HW,2013-03-02 18:47:00,
2013-03-02 13:49:00,40.0,28.4,29.87,WSW,248,2.5,4.7,63,0.00,,,0.01,WUHU216HW,2013-03-02 18:49:00,
2013-03-02 13:51:00,39.8,28.2,29.87,North,7,4.2,5.8,63,0.00,,,0.01,WUHU216HW,2013-03-02 18:51:00,
2013-03-02 13:52:00,39.8,28.2,29.87,WNW,293,2.5,5.8,63,0.00,,,0.01,WUHU216HW,2013-03-02 18:52:00,
2013-03-02 13:53:00,39.8,28.2,29.87,NW,310,2.0,5.8,63,0.00,,,0.01,WUHU216HW,2013-03-02 18:53:00,
2013-03-02 13:54:00,39.8,28.2,29.87,NW,315,2.5,5.8,63,0.00,,,0.01,WUHU216HW,2013-03-02 18:54:00,
2013-03-02 13:56:00,39.8,28.2,29.87,NNW,338,2.5,5.8,63,0.00,,,0.01,WUHU216HW,2013-03-02 18:56:00,
2013-03-02 13:58:00,39.8,28.2,29.87,West,270,3.8,5.8,63,0.00,,,0.01,WUHU216HW,2013-03-02 18:58:00,
2013-03-02 13:59:00,40.0,27.5,29.87,WNW,293,4.7,4.7,61,0.00,,,0.01,WUHU216HW,2013-03-02 18:59:00,
2013-03-02 14:02:00,39.8,27.4,29.87,NW,319,3.0,4.7,61,0.00,,,0.01,WUHU216HW,2013-03-02 19:02:00,
2013-03-02 14:03:00,39.6,27.2,29.87,North,0,3.1,4.7,61,0.00,,,0.01,WUHU216HW,2013-03-02 19:03:00,
2013-03-02 14:04:00,39.6,26.8,29.87,NW,315,3.6,4.7,60,0.00,,,0.01,WUHU216HW,2013-03-02 19:04:00,
2013-03-02 14:05:00,39.6,27.2,29.87,NW,315,4.5,4.7,61,0.00,,,0.01,WUHU216HW,2013-03-02 19:05:00,
2013-03-02 14:08:00,39.8,27.4,29.87,NW,315,4.7,4.7,61,0.00,,,0.01,WUHU216HW,2013-03-02 19:08:00,
2013-03-02 14:10:00,39.8,27.7,29.87,NW,305,3.2,4.7,62,0.00,,,0.01,WUHU216HW,2013-03-02 19:10:00,
2013-03-02 14:13:00,40.0,27.9,29.86,NW,315,4.0,4.7,62,0.00,,,0.01,WUHU216HW,2013-03-02 19:13:00,
2013-03-02 14:14:00,40.1,28.5,29.86,NW,315,3.3,4.7,63,0.00,,,0.01,WUHU216HW,2013-03-02 19:14:00,
2013-03-02 14:15:00,40.1,27.7,29.87,NW,315,4.7,4.7,61,0.00,,,0.01,WUHU216HW,2013-03-02 19:15:00,
2013-03-02 14:16:00,40.3,27.5,29.86,NW,315,3.9,4.7,60,0.00,,,0.01,WUHU216HW,2013-03-02 19:16:00,
2013-03-02 14:19:00,40.5,28.4,29.87,WNW,293,3.4,4.7,62,0.00,,,0.01,WUHU216HW,2013-03-02 19:19:00,
2013-03-02 14:20:00,40.7,28.6,29.87,WNW,293,3.0,4.7,62,0.00,,,0.01,WUHU216HW,2013-03-02 19:20:00,
2013-03-02 14:21:00,40.7,27.5,29.87,NW,315,5.4,5.4,59,0.00,,,0.01,WUHU216HW,2013-03-02 19:21:00,
2013-03-02 14:24:00,40.1,27.7,29.87,SW,225,2.9,5.4,61,0.00,,,0.01,WUHU216HW,2013-03-02 19:24:00,
2013-03-02 14:25:00,40.1,27.7,29.87,SW,225,2.9,5.4,61,0.00,,,0.01,WUHU216HW,2013-03-02 19:25:00,
2013-03-02 14:26:00,40.1,27.7,29.86,NW,315,4.7,5.4,61,0.00,,,0.01,WUHU216HW,2013-03-02 19:26:00,
2013-03-02 14:29:00,39.6,27.2,29.86,NNW,340,2.8,8.1,61,0.00,,,0.01,WUHU216HW,2013-03-02 19:29:00,
2013-03-02 14:30:00,39.6,27.2,29.86,NNW,340,2.8,8.1,61,0.00,,,0.01,WUHU216HW,2013-03-02 19:30:00,
2013-03-02 14:31:00,39.2,27.2,29.87,NW,315,2.0,8.1,62,0.00,,,0.01,WUHU216HW,2013-03-02 19:31:00,
2013-03-02 14:35:00,39.1,27.1,29.87,NNW,331,4.9,8.1,62,0.00,,,0.01,WUHU216HW,2013-03-02 19:35:00,
2013-03-02 14:36:00,38.7,26.4,29.87,NW,315,3.8,8.1,61,0.00,,,0.01,WUHU216HW,2013-03-02 19:36:00,
2013-03-02 14:37:00,38.5,26.9,29.87,NNW,338,2.7,6.3,63,0.00,,,0.01,WUHU216HW,2013-03-02 19:37:00,
2013-03-02 14:40:00,38.3,26.8,29.87,NNW,338,6.5,6.5,63,0.00,,,0.01,WUHU216HW,2013-03-02 19:40:00,
2013-03-02 14:41:00,38.2,26.7,29.87,NNW,338,4.8,6.5,63,0.00,,,0.01,WUHU216HW,2013-03-02 19:41:00,
2013-03-02 14:42:00,38.2,26.7,29.87,North,0,4.7,6.5,63,0.00,,,0.01,WUHU216HW,2013-03-02 19:42:00,
2013-03-02 14:43:00,38.0,26.5,29.87,WNW,293,5.4,6.5,63,0.00,,,0.01,WUHU216HW,2013-03-02 19:43:00,
2013-03-02 14:46:00,37.8,26.3,29.87,NNW,338,3.6,6.5,63,0.00,,,0.01,WUHU216HW,2013-03-02 19:46:00,
2013-03-02 14:47:00,37.8,26.3,29.87,NNW,333,2.3,6.5,63,0.00,,,0.01,WUHU216HW,2013-03-02 19:47:00,
2013-03-02 14:48:00,37.8,26.3,29.87,WNW,293,6.0,6.5,63,0.00,,,0.01,WUHU216HW,2013-03-02 19:48:00,
2013-03-02 14:51:00,37.6,26.1,29.87,NW,315,4.0,6.0,63,0.00,,,0.01,WUHU216HW,2013-03-02 19:51:00,
2013-03-02 14:52:00,37.6,26.1,29.87,NW,323,3.1,6.0,63,0.00,,,0.01,WUHU216HW,2013-03-02 19:52:00,
2013-03-02 14:53:00,37.6,26.6,29.87,NNW,338,4.0,6.0,64,0.00,,,0.01,WUHU216HW,2013-03-02 19:53:00,
2013-03-02 14:57:00,37.6,26.9,29.87,WNW,301,1.7,6.0,65,0.00,,,0.01,WUHU216HW,2013-03-02 19:57:00,
2013-03-02 14:58:00,37.6,26.9,29.88,WNW,293,2.5,6.0,65,0.00,,,0.01,WUHU216HW,2013-03-02 19:58:00,
2013-03-02 14:59:00,37.6,26.9,29.87,NW,310,2.0,4.0,65,0.00,,,0.01,WUHU216HW,2013-03-02 19:59:00,
2013-03-02 15:02:00,37.6,26.9,29.88,WNW,293,4.5,4.5,65,0.00,,,0.01,WUHU216HW,2013-03-02 20:02:00,
2013-03-02 15:04:00,37.6,26.9,29.87,North,349,3.8,4.5,65,0.00,,,0.01,WUHU216HW,2013-03-02 20:04:00,
2013-03-02 15:07:00,37.6,26.9,29.88,NNW,338,2.9,4.5,65,0.00,,,0.01,WUHU216HW,2013-03-02 20:07:00,
2013-03-02 15:08:00,37.6,26.9,29.88,NNW,338,2.9,4.5,65,0.00,,,0.01,WUHU216HW,2013-03-02 20:08:00,
2013-03-02 15:09:00,37.6,26.9,29.88,North,0,4.0,4.5,65,0.00,,,0.01,WUHU216HW,2013-03-02 20:09:00,
2013-03-02 15:13:00,37.6,27.3,29.88,NW,316,3.4,4.9,66,0.00,,,0.01,WUHU216HW,2013-03-02 20:13:00,
2013-03-02 15:14:00,37.4,27.1,29.88,NNW,338,5.4,5.4,66,0.00,,,0.01,WUHU216HW,2013-03-02 20:14:00,
2013-03-02 15:15:00,37.4,27.1,29.88,NW,315,3.4,5.4,66,0.00,,,0.01,WUHU216HW,2013-03-02 20:15:00,
2013-03-02 15:18:00,37.3,26.9,29.87,NW,305,2.3,5.4,66,0.00,,,0.01,WUHU216HW,2013-03-02 20:18:00,
2013-03-02 15:19:00,37.3,26.9,29.87,NW,305,2.3,5.4,66,0.00,,,0.01,WUHU216HW,2013-03-02 20:19:00,
2013-03-02 15:20:00,37.4,27.5,29.87,NW,323,1.2,5.4,67,0.00,,,0.01,WUHU216HW,2013-03-02 20:20:00,
2013-03-02 15:23:00,37.4,27.5,29.87,North,0,6.0,6.0,67,0.00,,,0.01,WUHU216HW,2013-03-02 20:23:00,
2013-03-02 15:24:00,37.4,27.5,29.87,North,353,4.3,6.0,67,0.00,,,0.01,WUHU216HW,2013-03-02 20:24:00,
2013-03-02 15:26:00,37.4,27.5,29.87,NNW,329,2.3,6.0,67,0.00,,,0.01,WUHU216HW,2013-03-02 20:26:00,
2013-03-02 15:29:00,37.4,27.5,29.87,WNW,293,5.4,6.0,67,0.00,,,0.01,WUHU216HW,2013-03-02 20:29:00,
2013-03-02 15:30:00,37.4,27.1,29.88,NW,315,5.8,6.0,66,0.00,,,0.01,WUHU216HW,2013-03-02 20:30:00,
2013-03-02 15:32:00,37.4,27.5,29.87,NW,315,4.7,6.0,67,0.00,,,0.01,WUHU216HW,2013-03-02 20:32:00,
2013-03-02 15:34:00,37.3,27.3,29.87,NNW,338,4.9,5.8,67,0.00,,,0.01,WUHU216HW,2013-03-02 20:34:00,
2013-03-02 15:35:00,37.3,27.3,29.87,NNW,338,4.9,5.8,67,0.00,,,0.01,WUHU216HW,2013-03-02 20:35:00,
2013-03-02 15:37:00,37.3,27.3,29.87,NNW,338,2.9,5.8,67,0.00,,,0.01,WUHU216HW,2013-03-02 20:37:00,
2013-03-02 15:41:00,37.3,27.3,29.87,NNW,331,3.3,4.9,67,0.00,,,0.01,WUHU216HW,2013-03-02 20:41:00,
2013-03-02 15:42:00,37.3,27.7,29.87,NW,315,2.2,4.9,68,0.00,,,0.01,WUHU216HW,2013-03-02 20:42:00,
2013-03-02 15:46:00,37.3,27.7,29.88,NW,315,3.1,4.7,68,0.00,,,0.01,WUHU216HW,2013-03-02 20:46:00,
2013-03-02 15:47:00,37.3,27.7,29.88,NW,315,3.1,4.7,68,0.00,,,0.01,WUHU216HW,2013-03-02 20:47:00,
2013-03-02 15:52:00,37.3,27.7,29.87,NW,323,1.5,4.7,68,0.00,,,0.01,WUHU216HW,2013-03-02 20:52:00,
2013-03-02 15:53:00,37.3,27.7,29.88,NW,315,2.0,3.4,68,0.00,,,0.01,WUHU216HW,2013-03-02 20:53:00,
2013-03-02 15:57:00,37.1,27.6,29.87,North,8,1.3,3.4,68,0.00,,,0.01,WUHU216HW,2013-03-02 20:57:00,
2013-03-02 15:58:00,37.1,27.6,29.87,WNW,293,1.1,2.9,68,0.00,,,0.01,WUHU216HW,2013-03-02 20:58:00,
2013-03-02 16:02:00,37.1,27.6,29.87,NNE,12,2.3,2.9,68,0.00,,,0.01,WUHU216HW,2013-03-02 21:02:00,
2013-03-02 16:03:00,36.9,27.7,29.87,NW,315,5.4,5.4,69,0.00,,,0.01,WUHU216HW,2013-03-02 21:03:00,
2013-03-02 16:04:00,36.9,27.4,29.88,NW,325,4.7,5.4,68,0.00,,,0.01,WUHU216HW,2013-03-02 21:04:00,
2013-03-02 16:08:00,36.7,27.6,29.88,NW,315,3.3,7.6,69,0.00,,,0.01,WUHU216HW,2013-03-02 21:08:00,
2013-03-02 16:09:00,36.7,27.6,29.87,NNW,338,4.7,7.6,69,0.00,,,0.01,WUHU216HW,2013-03-02 21:09:00,
2013-03-02 16:13:00,36.5,27.7,29.88,WNW,293,3.6,7.6,70,0.00,,,0.01,WUHU216HW,2013-03-02 21:13:00,
2013-03-02 16:14:00,36.5,27.7,29.88,WNW,293,3.6,7.6,70,0.00,,,0.01,WUHU216HW,2013-03-02 21:14:00,
2013-03-02 16:15:00,36.4,27.5,29.88,NNW,338,4.7,7.6,70,0.00,,,0.01,WUHU216HW,2013-03-02 21:15:00,
2013-03-02 16:18:00,36.4,27.9,29.88,NW,315,3.3,4.7,71,0.00,,,0.01,WUHU216HW,2013-03-02 21:18:00,
2013-03-02 16:19:00,36.4,27.9,29.88,NW,315,3.3,4.7,71,0.00,,,0.01,WUHU216HW,2013-03-02 21:19:00,
2013-03-02 16:20:00,36.5,28.1,29.88,North,0,6.0,6.0,71,0.00,,,0.01,WUHU216HW,2013-03-02 21:20:00,
2013-03-02 16:23:00,36.7,28.3,29.88,WNW,293,5.1,6.0,71,0.00,,,0.01,WUHU216HW,2013-03-02 21:23:00,
2013-03-02 16:24:00,36.5,28.1,29.88,NW,307,3.8,6.0,71,0.00,,,0.01,WUHU216HW,2013-03-02 21:24:00,
2013-03-02 16:25:00,36.7,28.3,29.88,NW,315,2.5,6.0,71,0.00,,,0.01,WUHU216HW,2013-03-02 21:25:00,
2013-03-02 16:27:00,36.7,28.3,29.88,NNW,338,3.8,6.0,71,0.00,,,0.01,WUHU216HW,2013-03-02 21:27:00,
2013-03-02 16:29:00,36.5,28.1,29.88,NW,315,4.3,6.0,71,0.00,,,0.01,WUHU216HW,2013-03-02 21:29:00,
2013-03-02 16:30:00,36.5,28.1,29.88,NW,315,4.3,6.0,71,0.00,,,0.01,WUHU216HW,2013-03-02 21:30:00,
2013-03-02 16:32:00,36.7,28.3,29.88,NW,315,3.4,5.6,71,0.00,,,0.01,WUHU216HW,2013-03-02 21:32:00,
2013-03-02 16:35:00,36.5,28.1,29.88,North,0,3.6,5.6,71,0.00,,,0.01,WUHU216HW,2013-03-02 21:35:00,
2013-03-02 16:37:00,36.5,28.1,29.88,NW,315,3.4,5.6,71,0.00,,,0.01,WUHU216HW,2013-03-02 21:37:00,
2013-03-02 16:38:00,36.5,28.1,29.88,NNW,338,4.3,5.4,71,0.00,,,0.01,WUHU216HW,2013-03-02 21:38:00,
2013-03-02 16:40:00,36.4,27.9,29.88,North,0,4.1,5.6,71,0.00,,,0.01,WUHU216HW,2013-03-02 21:40:00,
2013-03-02 16:41:00,36.4,27.9,29.88,North,0,4.1,5.6,71,0.00,,,0.01,WUHU216HW,2013-03-02 21:41:00,
2013-03-02 16:42:00,36.4,27.9,29.88,NW,315,4.0,5.6,71,0.00,,,0.01,WUHU216HW,2013-03-02 21:42:00,
2013-03-02 16:44:00,36.4,27.9,29.88,NW,315,5.1,5.6,71,0.00,,,0.01,WUHU216HW,2013-03-02 21:44:00,
2013-03-02 16:47:00,36.4,27.9,29.89,NNW,327,4.9,5.6,71,0.00,,,0.01,WUHU216HW,2013-03-02 21:47:00,
2013-03-02 16:49:00,36.2,27.7,29.89,WNW,293,2.9,5.4,71,0.00,,,0.01,WUHU216HW,2013-03-02 21:49:00,
2013-03-02 16:53:00,36.4,27.9,29.89,NW,315,2.5,5.4,71,0.00,,,0.01,WUHU216HW,2013-03-02 21:53:00,
2013-03-02 16:55:00,36.4,28.2,29.89,WNW,293,5.4,5.4,72,0.00,,,0.01,WUHU216HW,2013-03-02 21:55:00,
2013-03-02 16:58:00,36.2,28.0,29.89,NNW,331,1.3,5.4,72,0.00,,,0.01,WUHU216HW,2013-03-02 21:58:00,
2013-03-02 16:59:00,36.2,28.0,29.89,WNW,293,1.1,5.4,72,0.00,,,0.01,WUHU216HW,2013-03-02 21:59:00,
2013-03-02 17:00:00,36.2,28.0,29.89,WNW,293,2.7,5.4,72,0.00,,,0.01,WUHU216HW,2013-03-02 22:00:00,
2013-03-02 17:03:00,36.2,28.0,29.89,NNW,327,2.9,5.4,72,0.00,,,0.01,WUHU216HW,2013-03-02 22:03:00,
2013-03-02 17:04:00,36.2,28.0,29.89,NNW,327,2.9,5.4,72,0.00,,,0.01,WUHU216HW,2013-03-02 22:04:00,
2013-03-02 17:06:00,36.2,28.0,29.89,West,270,4.5,4.5,72,0.00,,,0.01,WUHU216HW,2013-03-02 22:06:00,
2013-03-02 17:08:00,36.2,28.0,29.89,North,5,4.1,4.7,72,0.00,,,0.01,WUHU216HW,2013-03-02 22:08:00,
2013-03-02 17:09:00,36.2,28.4,29.89,NNE,17,2.6,4.7,73,0.00,,,0.01,WUHU216HW,2013-03-02 22:09:00,
2013-03-02 17:11:00,36.2,28.0,29.89,NNW,332,1.5,4.7,72,0.00,,,0.01,WUHU216HW,2013-03-02 22:11:00,
2013-03-02 17:12:00,36.0,28.2,29.89,NNW,338,3.4,4.7,73,0.00,,,0.01,WUHU216HW,2013-03-02 22:12:00,
2013-03-02 17:14:00,36.0,28.2,29.89,NNW,338,3.1,4.7,73,0.00,,,0.01,WUHU216HW,2013-03-02 22:14:00,
2013-03-02 17:16:00,36.0,28.2,29.89,NNW,338,2.7,4.7,73,0.00,,,0.01,WUHU216HW,2013-03-02 22:16:00,
2013-03-02 17:17:00,36.0,28.2,29.89,WNW,293,3.8,3.8,73,0.00,,,0.01,WUHU216HW,2013-03-02 22:17:00,
2013-03-02 17:19:00,36.0,27.8,29.89,NW,314,3.7,3.8,72,0.00,,,0.01,WUHU216HW,2013-03-02 22:19:00,
2013-03-02 17:21:00,36.0,27.8,29.89,North,0,2.9,3.8,72,0.00,,,0.01,WUHU216HW,2013-03-02 22:21:00,
2013-03-02 17:22:00,36.0,27.8,29.89,NW,311,4.5,7.2,72,0.00,,,0.01,WUHU216HW,2013-03-02 22:22:00,
2013-03-02 17:24:00,36.0,27.8,29.89,NNW,338,3.1,7.2,72,0.00,,,0.01,WUHU216HW,2013-03-02 22:24:00,
2013-03-02 17:25:00,36.0,27.8,29.89,NNW,338,2.5,7.2,72,0.00,,,0.01,WUHU216HW,2013-03-02 22:25:00,
2013-03-02 17:26:00,36.0,27.8,29.89,NNW,328,2.3,7.2,72,0.00,,,0.01,WUHU216HW,2013-03-02 22:26:00,
2013-03-02 17:29:00,36.0,27.8,29.89,NW,315,5.4,7.2,72,0.00,,,0.01,WUHU216HW,2013-03-02 22:29:00,
2013-03-02 17:30:00,36.0,27.6,29.89,NW,315,5.1,7.2,71,0.00,,,0.01,WUHU216HW,2013-03-02 22:30:00,
2013-03-02 17:32:00,36.0,27.6,29.89,NW,315,2.3,6.5,71,0.00,,,0.01,WUHU216HW,2013-03-02 22:32:00,
2013-03-02 17:34:00,36.0,27.6,29.89,WNW,301,4.3,6.5,71,0.00,,,0.01,WUHU216HW,2013-03-02 22:34:00,
2013-03-02 17:35:00,36.0,27.6,29.89,NW,315,5.1,6.5,71,0.00,,,0.01,WUHU216HW,2013-03-02 22:35:00,
2013-03-02 17:37:00,35.8,27.4,29.89,NW,315,4.0,6.5,71,0.00,,,0.01,WUHU216HW,2013-03-02 22:37:00,
2013-03-02 17:39:00,35.6,27.2,29.89,NNW,338,3.8,5.4,71,0.00,,,0.01,WUHU216HW,2013-03-02 22:39:00,
2013-03-02 17:40:00,35.6,27.2,29.89,NNW,338,3.8,5.4,71,0.00,,,0.01,WUHU216HW,2013-03-02 22:40:00,
2013-03-02 17:41:00,35.8,27.0,29.89,NW,315,4.0,5.4,70,0.00,,,0.01,WUHU216HW,2013-03-02 22:41:00,
2013-03-02 17:42:00,35.6,27.2,29.89,NNW,339,3.3,5.1,71,0.00,,,0.01,WUHU216HW,2013-03-02 22:42:00,
2013-03-02 17:45:00,35.6,27.2,29.89,NW,315,7.2,7.2,71,0.00,,,0.01,WUHU216HW,2013-03-02 22:45:00,
2013-03-02 17:47:00,35.6,27.2,29.90,WNW,302,5.9,8.3,71,0.00,,,0.01,WUHU216HW,2013-03-02 22:47:00,
2013-03-02 17:48:00,35.6,27.2,29.90,WNW,302,5.9,8.3,71,0.00,,,0.01,WUHU216HW,2013-03-02 22:48:00,
2013-03-02 17:50:00,35.6,27.2,29.90,WNW,293,2.5,8.3,71,0.00,,,0.01,WUHU216HW,2013-03-02 22:50:00,
2013-03-02 17:51:00,35.6,27.2,29.90,West,270,3.6,8.3,71,0.00,,,0.01,WUHU216HW,2013-03-02 22:51:00,
2013-03-02 17:53:00,35.6,27.2,29.90,NNW,338,3.7,8.3,71,0.00,,,0.01,WUHU216HW,2013-03-02 22:53:00,
2013-03-02 17:55:00,35.6,27.2,29.90,NW,315,4.0,8.3,71,0.00,,,0.01,WUHU216HW,2013-03-02 22:55:00,
2013-03-02 17:56:00,35.6,27.2,29.90,NW,315,4.0,8.3,71,0.00,,,0.01,WUHU216HW,2013-03-02 22:56:00,
2013-03-02 17:58:00,35.6,27.2,29.90,NW,308,4.1,5.4,71,0.00,,,0.01,WUHU216HW,2013-03-02 22:58:00,
2013-03-02 17:59:00,35.6,27.2,29.90,NW,315,4.9,5.4,71,0.00,,,0.01,WUHU216HW,2013-03-02 22:59:00,
2013-03-02 18:00:00,35.5,27.0,29.90,NW,315,2.0,5.4,71,0.00,,,0.01,WUHU216HW,2013-03-02 23:00:00,
2013-03-02 18:01:00,35.5,27.0,29.90,NNW,338,3.4,5.4,71,0.00,,,0.01,WUHU216HW,2013-03-02 23:01:00,
2013-03-02 18:03:00,35.5,27.0,29.90,NW,315,2.0,5.4,71,0.00,,,0.01,WUHU216HW,2013-03-02 23:03:00,
2013-03-02 18:04:00,35.5,27.0,29.90,NW,315,2.0,5.4,71,0.00,,,0.01,WUHU216HW,2013-03-02 23:04:00,
2013-03-02 18:05:00,35.5,27.0,29.90,NNW,332,2.3,5.4,71,0.00,,,0.01,WUHU216HW,2013-03-02 23:05:00,
2013-03-02 18:06:00,35.5,27.0,29.90,North,0,1.1,4.9,71,0.00,,,0.01,WUHU216HW,2013-03-02 23:06:00,
2013-03-02 18:08:00,35.5,27.0,29.91,NW,315,2.7,4.9,71,0.00,,,0.01,WUHU216HW,2013-03-02 23:08:00,
2013-03-02 18:10:00,35.5,27.0,29.91,NNW,333,2.3,3.4,71,0.00,,,0.01,WUHU216HW,2013-03-02 23:10:00,
2013-03-02 18:11:00,35.5,27.0,29.91,NW,322,5.2,6.9,71,0.00,,,0.01,WUHU216HW,2013-03-02 23:11:00,
2013-03-02 18:12:00,35.5,27.0,29.91,NW,322,5.2,6.9,71,0.00,,,0.01,WUHU216HW,2013-03-02 23:12:00,
2013-03-02 18:14:00,35.3,26.8,29.91,NNW,341,2.2,6.9,71,0.00,,,0.01,WUHU216HW,2013-03-02 23:14:00,
2013-03-02 18:15:00,35.3,26.8,29.91,NNW,348,3.5,6.9,71,0.00,,,0.01,WUHU216HW,2013-03-02 23:15:00,
2013-03-02 18:16:00,35.3,26.8,29.91,NNW,338,4.7,6.9,71,0.00,,,0.01,WUHU216HW,2013-03-02 23:16:00,
2013-03-02 18:17:00,35.3,26.8,29.91,NNW,338,4.7,6.9,71,0.00,,,0.01,WUHU216HW,2013-03-02 23:17:00,
2013-03-02 18:21:00,35.3,26.8,29.91,NW,326,3.5,4.7,71,0.00,,,0.01,WUHU216HW,2013-03-02 23:21:00,
2013-03-02 18:22:00,35.3,26.5,29.91,NNW,338,2.3,4.7,70,0.00,,,0.01,WUHU216HW,2013-03-02 23:22:00,
2013-03-02 18:24:00,35.3,26.8,29.91,North,0,3.4,4.7,71,0.00,,,0.01,WUHU216HW,2013-03-02 23:24:00,
2013-03-02 18:26:00,35.3,26.5,29.91,North,2,5.3,7.2,70,0.00,,,0.01,WUHU216HW,2013-03-02 23:26:00,
2013-03-02 18:27:00,35.3,26.5,29.91,North,2,5.3,7.2,70,0.00,,,0.01,WUHU216HW,2013-03-02 23:27:00,
2013-03-02 18:28:00,35.1,26.3,29.91,NNW,338,6.9,7.2,70,0.00,,,0.01,WUHU216HW,2013-03-02 23:28:00,
2013-03-02 18:29:00,35.1,26.3,29.91,NNW,329,5.4,7.2,70,0.00,,,0.01,WUHU216HW,2013-03-02 23:29:00,
2013-03-02 18:31:00,35.3,26.8,29.91,NW,322,2.6,7.2,71,0.00,,,0.01,WUHU216HW,2013-03-02 23:31:00,
2013-03-02 18:32:00,35.3,26.8,29.92,NW,315,2.5,7.2,71,0.00,,,0.01,WUHU216HW,2013-03-02 23:32:00,
2013-03-02 18:33:00,35.3,26.8,29.92,North,0,2.5,7.2,71,0.00,,,0.01,WUHU216HW,2013-03-02 23:33:00,
2013-03-02 18:35:00,35.1,26.7,29.92,North,0,2.5,7.2,71,0.00,,,0.01,WUHU216HW,2013-03-02 23:35:00,
2013-03-02 18:36:00,35.1,26.7,29.92,West,270,6.9,6.9,71,0.00,,,0.01,WUHU216HW,2013-03-02 23:36:00,
2013-03-02 18:38:00,35.1,26.7,29.92,West,278,5.3,6.9,71,0.00,,,0.01,WUHU216HW,2013-03-02 23:38:00,
2013-03-02 18:39:00,35.1,26.7,29.92,North,0,3.8,6.9,71,0.00,,,0.01,WUHU216HW,2013-03-02 23:39:00,
2013-03-02 18:42:00,35.1,26.7,29.92,NNW,341,3.5,6.9,71,0.00,,,0.01,WUHU216HW,2013-03-02 23:42:00,
2013-03-02 18:44:00,35.1,26.7,29.92,NNW,345,2.5,6.9,71,0.00,,,0.01,WUHU216HW,2013-03-02 23:44:00,
2013-03-02 18:47:00,35.1,26.7,29.92,NNE,23,2.0,5.6,71,0.00,,,0.01,WUHU216HW,2013-03-02 23:47:00,
2013-03-02 18:50:00,34.9,26.5,29.92,North,0,4.7,5.6,71,0.00,,,0.01,WUHU216HW,2013-03-02 23:50:00,
2013-03-02 18:52:00,34.9,26.5,29.92,NW,315,3.1,4.7,71,0.00,,,0.01,WUHU216HW,2013-03-02 23:52:00,
2013-03-02 18:53:00,34.9,26.5,29.92,NW,315,3.1,4.7,71,0.00,,,0.01,WUHU216HW,2013-03-02 23:53:00,
2013-03-02 18:56:00,34.7,26.6,29.92,NNW,328,4.7,5.6,72,0.00,,,0.01,WUHU216HW,2013-03-02 23:56:00,
2013-03-02 18:58:00,34.7,26.6,29.92,NW,315,5.1,5.6,72,0.00,,,0.01,WUHU216HW,2013-03-02 23:58:00,
2013-03-02 18:59:00,34.7,26.6,29.92,NW,315,4.5,5.6,72,0.00,,,0.01,WUHU216HW,2013-03-02 23:59:00,
2013-03-02 19:02:00,34.6,26.4,29.92,NNW,343,2.3,5.6,72,0.00,,,0.01,WUHU216HW,2013-03-03 00:02:00,
2013-03-02 19:03:00,34.6,26.4,29.92,NNW,343,2.3,5.6,72,0.00,,,0.01,WUHU216HW,2013-03-03 00:03:00,
2013-03-02 19:04:00,34.6,26.4,29.92,North,0,2.5,5.6,72,0.00,,,0.01,WUHU216HW,2013-03-03 00:04:00,
2013-03-02 19:09:00,34.6,26.7,29.92,NNW,338,2.7,4.7,73,0.00,,,0.01,WUHU216HW,2013-03-03 00:09:00,
2013-03-02 19:10:00,34.4,26.6,29.92,WNW,293,4.3,4.7,73,0.00,,,0.01,WUHU216HW,2013-03-03 00:10:00,
2013-03-02 19:14:00,34.4,26.6,29.92,NW,315,2.5,4.7,73,0.00,,,0.01,WUHU216HW,2013-03-03 00:14:00,
2013-03-02 19:16:00,34.4,26.6,29.92,NW,315,4.9,4.9,73,0.00,,,0.01,WUHU216HW,2013-03-03 00:16:00,
2013-03-02 19:19:00,34.2,26.0,29.92,NW,318,4.4,6.0,72,0.00,,,0.01,WUHU216HW,2013-03-03 00:19:00,
2013-03-02 19:20:00,34.2,26.0,29.92,NW,318,4.4,6.0,72,0.00,,,0.01,WUHU216HW,2013-03-03 00:20:00,
2013-03-02 19:21:00,34.4,26.6,29.92,North,2,2.7,6.0,73,0.00,,,0.01,WUHU216HW,2013-03-03 00:21:00,
2013-03-02 19:25:00,34.2,26.0,29.93,NNW,338,4.3,6.0,72,0.00,,,0.01,WUHU216HW,2013-03-03 00:25:00,
2013-03-02 19:26:00,34.2,26.0,29.92,NNW,338,4.9,6.0,72,0.00,,,0.01,WUHU216HW,2013-03-03 00:26:00,
2013-03-02 19:30:00,34.2,26.4,29.93,NW,315,3.4,5.4,73,0.00,,,0.01,WUHU216HW,2013-03-03 00:30:00,
2013-03-02 19:31:00,34.2,26.4,29.92,NW,324,2.8,5.4,73,0.00,,,0.01,WUHU216HW,2013-03-03 00:31:00,
2013-03-02 19:32:00,34.2,26.4,29.92,NW,324,2.8,5.4,73,0.00,,,0.01,WUHU216HW,2013-03-03 00:32:00,
2013-03-02 19:35:00,34.2,26.4,29.93,North,0,4.3,5.4,73,0.00,,,0.01,WUHU216HW,2013-03-03 00:35:00,
2013-03-02 19:37:00,34.2,26.4,29.93,WNW,293,2.9,4.7,73,0.00,,,0.01,WUHU216HW,2013-03-03 00:37:00,
2013-03-02 19:38:00,34.2,26.4,29.93,WNW,293,2.9,4.7,73,0.00,,,0.01,WUHU216HW,2013-03-03 00:38:00,
2013-03-02 19:41:00,34.2,26.4,29.93,NNW,338,3.1,4.3,73,0.00,,,0.01,WUHU216HW,2013-03-03 00:41:00,
2013-03-02 19:43:00,34.0,26.2,29.93,NW,315,3.4,4.3,73,0.00,,,0.01,WUHU216HW,2013-03-03 00:43:00,
2013-03-02 19:44:00,34.0,26.2,29.93,NNW,338,1.8,4.3,73,0.00,,,0.01,WUHU216HW,2013-03-03 00:44:00,
2013-03-02 19:46:00,34.0,26.2,29.93,NNW,338,3.8,3.8,73,0.00,,,0.01,WUHU216HW,2013-03-03 00:46:00,
2013-03-02 19:48:00,34.0,26.2,29.93,NNE,23,2.0,3.8,73,0.00,,,0.01,WUHU216HW,2013-03-03 00:48:00,
2013-03-02 19:49:00,34.0,26.2,29.93,WNW,293,1.8,3.8,73,0.00,,,0.01,WUHU216HW,2013-03-03 00:49:00,
2013-03-02 19:51:00,34.0,26.2,29.93,NNE,23,2.5,3.8,73,0.00,,,0.01,WUHU216HW,2013-03-03 00:51:00,
2013-03-02 19:54:00,33.8,26.3,29.93,NNW,338,4.0,4.0,74,0.00,,,0.01,WUHU216HW,2013-03-03 00:54:00,
2013-03-02 19:55:00,33.8,26.3,29.93,NW,315,4.9,4.9,74,0.00,,,0.01,WUHU216HW,2013-03-03 00:55:00,
2013-03-02 19:56:00,33.8,26.3,29.93,NW,307,3.9,4.9,74,0.00,,,0.01,WUHU216HW,2013-03-03 00:56:00,
2013-03-02 19:59:00,33.8,26.3,29.93,NW,307,1.5,4.9,74,0.00,,,0.01,WUHU216HW,2013-03-03 00:59:00,
2013-03-02 20:00:00,33.8,26.3,29.93,NW,315,2.7,4.9,74,0.00,,,0.01,WUHU216HW,2013-03-03 01:00:00,
2013-03-02 20:02:00,33.8,26.3,29.92,NW,325,2.5,4.9,74,0.00,,,0.01,WUHU216HW,2013-03-03 01:02:00,
2013-03-02 20:04:00,33.8,26.3,29.92,NNW,336,2.3,4.9,74,0.00,,,0.01,WUHU216HW,2013-03-03 01:04:00,
2013-03-02 20:05:00,33.8,26.3,29.93,NW,315,2.7,2.9,74,0.00,,,0.01,WUHU216HW,2013-03-03 01:05:00,
2013-03-02 20:08:00,33.7,26.2,29.93,NNW,338,1.8,2.7,74,0.00,,,0.01,WUHU216HW,2013-03-03 01:08:00,
2013-03-02 20:09:00,33.7,26.2,29.93,NNW,338,1.8,2.7,74,0.00,,,0.01,WUHU216HW,2013-03-03 01:09:00,
2013-03-02 20:11:00,33.7,26.5,29.92,NNW,338,4.0,4.0,75,0.00,,,0.01,WUHU216HW,2013-03-03 01:11:00,
2013-03-02 20:13:00,33.7,26.5,29.93,NNW,338,3.4,4.0,75,0.00,,,0.01,WUHU216HW,2013-03-03 01:13:00,
2013-03-02 20:14:00,33.7,26.5,29.92,NNW,346,2.7,4.0,75,0.00,,,0.01,WUHU216HW,2013-03-03 01:14:00,
2013-03-02 20:16:00,33.7,26.5,29.93,North,0,2.2,4.0,75,0.00,,,0.01,WUHU216HW,2013-03-03 01:16:00,
2013-03-02 20:18:00,33.7,26.5,29.93,NNW,345,1.3,4.0,75,0.00,,,0.01,WUHU216HW,2013-03-03 01:18:00,
2013-03-02 20:19:00,33.7,26.2,29.93,North,0,1.1,4.0,74,0.00,,,0.01,WUHU216HW,2013-03-03 01:19:00,
2013-03-02 20:21:00,33.5,26.3,29.93,NNW,338,1.8,3.4,75,0.00,,,0.01,WUHU216HW,2013-03-03 01:21:00,
2013-03-02 20:23:00,33.5,26.3,29.93,NNW,338,2.0,2.2,75,0.00,,,0.01,WUHU216HW,2013-03-03 01:23:00,
2013-03-02 20:24:00,33.5,26.3,29.93,NNW,338,2.0,2.2,75,0.00,,,0.01,WUHU216HW,2013-03-03 01:24:00,
2013-03-02 20:25:00,33.5,26.3,29.93,NW,315,2.7,2.9,75,0.00,,,0.01,WUHU216HW,2013-03-03 01:25:00,
2013-03-02 20:28:00,33.5,26.3,29.93,NW,321,1.3,2.9,75,0.00,,,0.01,WUHU216HW,2013-03-03 01:28:00,
2013-03-02 20:30:00,33.5,26.6,29.93,North,0,1.1,2.9,76,0.00,,,0.01,WUHU216HW,2013-03-03 01:30:00,
2013-03-02 20:32:00,33.5,26.6,29.93,NNW,338,3.4,3.4,76,0.00,,,0.01,WUHU216HW,2013-03-03 01:32:00,
2013-03-02 20:33:00,33.5,26.6,29.93,North,358,1.0,3.4,76,0.00,,,0.01,WUHU216HW,2013-03-03 01:33:00,
2013-03-02 20:34:00,33.5,26.6,29.92,North,0,2.5,3.4,76,0.00,,,0.01,WUHU216HW,2013-03-03 01:34:00,
2013-03-02 20:36:00,33.3,26.5,29.92,NNW,338,2.5,3.4,76,0.00,,,0.01,WUHU216HW,2013-03-03 01:36:00,
2013-03-02 20:37:00,33.5,26.6,29.93,NW,315,2.9,3.4,76,0.00,,,0.01,WUHU216HW,2013-03-03 01:37:00,
2013-03-02 20:39:00,33.3,26.5,29.93,North,352,2.0,3.4,76,0.00,,,0.01,WUHU216HW,2013-03-03 01:39:00,
2013-03-02 20:41:00,33.3,26.5,29.93,NW,315,3.1,3.4,76,0.00,,,0.01,WUHU216HW,2013-03-03 01:41:00,
2013-03-02 20:42:00,33.3,26.5,29.93,NNW,338,4.0,4.0,76,0.00,,,0.01,WUHU216HW,2013-03-03 01:42:00,
2013-03-02 20:44:00,33.3,26.5,29.93,NNW,338,3.6,4.0,76,0.00,,,0.01,WUHU216HW,2013-03-03 01:44:00,
2013-03-02 20:48:00,33.1,26.3,29.93,North,0,1.2,4.0,76,0.00,,,0.01,WUHU216HW,2013-03-03 01:48:00,
2013-03-02 20:49:00,33.1,26.3,29.93,North,0,2.7,4.0,76,0.00,,,0.01,WUHU216HW,2013-03-03 01:49:00,
2013-03-02 20:50:00,33.1,26.3,29.93,North,0,2.7,4.0,76,0.00,,,0.01,WUHU216HW,2013-03-03 01:50:00,
2013-03-02 20:53:00,33.1,26.3,29.93,NNW,338,2.2,3.6,76,0.00,,,0.01,WUHU216HW,2013-03-03 01:53:00,
2013-03-02 20:54:00,33.1,26.3,29.93,NNW,338,2.9,2.9,76,0.00,,,0.01,WUHU216HW,2013-03-03 01:54:00,
2013-03-02 20:55:00,33.1,26.3,29.93,NNW,338,2.9,2.9,76,0.00,,,0.01,WUHU216HW,2013-03-03 01:55:00,
2013-03-02 20:59:00,32.9,26.2,29.93,NNW,338,4.5,5.4,76,0.00,,,0.01,WUHU216HW,2013-03-03 01:59:00,
2013-03-02 21:00:00,32.9,26.2,29.93,NNW,338,2.7,5.4,76,0.00,,,0.01,WUHU216HW,2013-03-03 02:00:00,
2013-03-02 21:04:00,32.9,26.2,29.93,NW,315,4.3,5.4,76,0.00,,,0.01,WUHU216HW,2013-03-03 02:04:00,
2013-03-02 21:05:00,32.9,26.2,29.93,NW,315,2.4,5.4,76,0.00,,,0.01,WUHU216HW,2013-03-03 02:05:00,
2013-03-02 21:06:00,32.9,26.2,29.93,NW,315,2.4,5.4,76,0.00,,,0.01,WUHU216HW,2013-03-03 02:06:00,
2013-03-02 21:09:00,32.9,26.2,29.94,NNW,338,2.5,5.4,76,0.00,,,0.01,WUHU216HW,2013-03-03 02:09:00,
2013-03-02 21:10:00,32.9,26.2,29.94,NNW,330,1.9,5.4,76,0.00,,,0.01,WUHU216HW,2013-03-03 02:10:00,
2013-03-02 21:12:00,32.9,26.2,29.94,North,0,1.1,5.4,76,0.00,,,0.01,WUHU216HW,2013-03-03 02:12:00,
2013-03-02 21:14:00,32.9,26.2,29.94,NNW,338,4.3,4.3,76,0.00,,,0.01,WUHU216HW,2013-03-03 02:14:00,
2013-03-02 21:15:00,32.9,25.8,29.94,NNW,348,4.2,4.3,75,0.00,,,0.01,WUHU216HW,2013-03-03 02:15:00,
2013-03-02 21:16:00,32.9,25.8,29.94,NNW,348,4.2,4.3,75,0.00,,,0.01,WUHU216HW,2013-03-03 02:16:00,
2013-03-02 21:18:00,32.9,25.8,29.94,NW,315,5.4,5.4,75,0.00,,,0.01,WUHU216HW,2013-03-03 02:18:00,
2013-03-02 21:19:00,33.1,26.0,29.94,NW,321,1.5,5.4,75,0.00,,,0.01,WUHU216HW,2013-03-03 02:19:00,
2013-03-02 21:21:00,33.1,26.0,29.94,North,0,3.4,5.4,75,0.00,,,0.01,WUHU216HW,2013-03-03 02:21:00,
2013-03-02 21:24:00,33.1,25.7,29.94,WNW,302,2.2,5.4,74,0.00,,,0.01,WUHU216HW,2013-03-03 02:24:00,
2013-03-02 21:25:00,33.1,25.7,29.94,North,0,2.5,5.4,74,0.00,,,0.01,WUHU216HW,2013-03-03 02:25:00,
2013-03-02 21:26:00,33.1,25.7,29.94,NNW,335,1.9,5.4,74,0.00,,,0.01,WUHU216HW,2013-03-03 02:26:00,
2013-03-02 21:27:00,33.1,25.7,29.94,NNW,335,1.9,3.8,74,0.00,,,0.01,WUHU216HW,2013-03-03 02:27:00,
2013-03-02 21:30:00,33.1,25.7,29.94,North,0,5.1,5.1,74,0.00,,,0.01,WUHU216HW,2013-03-03 02:30:00,
2013-03-02 21:31:00,33.1,25.7,29.94,NW,315,2.7,5.1,74,0.00,,,0.01,WUHU216HW,2013-03-03 02:31:00,
2013-03-02 21:34:00,33.1,25.7,29.94,NNW,330,2.6,5.1,74,0.00,,,0.01,WUHU216HW,2013-03-03 02:34:00,
2013-03-02 21:36:00,33.1,25.4,29.94,NW,315,4.3,5.1,73,0.00,,,0.01,WUHU216HW,2013-03-03 02:36:00,
2013-03-02 21:40:00,33.1,25.4,29.94,NNW,338,2.2,4.7,73,0.00,,,0.01,WUHU216HW,2013-03-03 02:40:00,
2013-03-02 21:41:00,33.1,25.4,29.95,NNW,327,2.1,4.7,73,0.00,,,0.01,WUHU216HW,2013-03-03 02:41:00,
2013-03-02 21:42:00,33.1,25.4,29.95,NNW,338,4.7,4.7,73,0.00,,,0.01,WUHU216HW,2013-03-03 02:42:00,
2013-03-02 21:45:00,33.1,25.4,29.94,NW,315,3.8,4.7,73,0.00,,,0.01,WUHU216HW,2013-03-03 02:45:00,
2013-03-02 21:46:00,33.1,25.4,29.94,NW,315,3.8,4.7,73,0.00,,,0.01,WUHU216HW,2013-03-03 02:46:00,
2013-03-02 21:47:00,33.1,25.4,29.94,NW,322,2.8,4.7,73,0.00,,,0.01,WUHU216HW,2013-03-03 02:47:00,
2013-03-02 21:51:00,33.1,25.4,29.94,NNE,23,2.5,4.7,73,0.00,,,0.01,WUHU216HW,2013-03-03 02:51:00,
2013-03-02 21:52:00,33.1,25.4,29.95,NW,315,3.4,3.8,73,0.00,,,0.01,WUHU216HW,2013-03-03 02:52:00,
2013-03-02 21:53:00,33.1,25.4,29.94,WNW,293,3.8,3.8,73,0.00,,,0.01,WUHU216HW,2013-03-03 02:53:00,
2013-03-02 21:56:00,32.9,25.2,29.95,NW,315,4.5,5.4,73,0.00,,,0.01,WUHU216HW,2013-03-03 02:56:00,
2013-03-02 21:57:00,32.9,25.2,29.95,NW,315,4.5,5.4,73,0.00,,,0.01,WUHU216HW,2013-03-03 02:57:00,
2013-03-02 21:58:00,33.1,25.4,29.94,WNW,290,2.9,5.4,73,0.00,,,0.01,WUHU216HW,2013-03-03 02:58:00,
2013-03-02 22:02:00,32.9,25.2,29.94,NNW,338,1.8,5.4,73,0.00,,,0.01,WUHU216HW,2013-03-03 03:02:00,
2013-03-02 22:03:00,32.9,25.2,29.94,North,0,2.9,5.4,73,0.00,,,0.01,WUHU216HW,2013-03-03 03:03:00,
2013-03-02 22:05:00,32.9,25.2,29.95,NNW,338,1.9,5.4,73,0.00,,,0.01,WUHU216HW,2013-03-03 03:05:00,
2013-03-02 22:07:00,32.9,25.2,29.95,NNW,327,1.2,4.0,73,0.00,,,0.01,WUHU216HW,2013-03-03 03:07:00,
2013-03-02 22:08:00,32.9,25.2,29.95,NNW,327,1.2,4.0,73,0.00,,,0.01,WUHU216HW,2013-03-03 03:08:00,
2013-03-02 22:09:00,32.9,25.2,29.95,NNW,338,3.1,4.0,73,0.00,,,0.01,WUHU216HW,2013-03-03 03:09:00,
2013-03-02 22:10:00,32.8,25.0,29.94,North,0,4.3,4.3,73,0.00,,,0.01,WUHU216HW,2013-03-03 03:10:00,
2013-03-02 22:12:00,32.8,25.0,29.94,NNW,334,4.3,5.1,73,0.00,,,0.01,WUHU216HW,2013-03-03 03:12:00,
2013-03-02 22:13:00,32.8,25.0,29.94,NNW,334,4.3,5.1,73,0.00,,,0.01,WUHU216HW,2013-03-03 03:13:00,
2013-03-02 22:14:00,32.8,25.0,29.94,WNW,303,2.3,5.1,73,0.00,,,0.01,WUHU216HW,2013-03-03 03:14:00,
2013-03-02 22:15:00,32.8,25.0,29.94,North,355,2.3,5.1,73,0.00,,,0.01,WUHU216HW,2013-03-03 03:15:00,
2013-03-02 22:18:00,32.8,25.0,29.94,NNW,348,1.2,5.1,73,0.00,,,0.01,WUHU216HW,2013-03-03 03:18:00,
2013-03-02 22:19:00,32.8,25.0,29.94,West,270,1.8,5.1,73,0.00,,,0.01,WUHU216HW,2013-03-03 03:19:00,
2013-03-02 22:21:00,32.8,25.0,29.94,NNW,338,2.2,5.1,73,0.00,,,0.01,WUHU216HW,2013-03-03 03:21:00,
2013-03-02 22:23:00,32.8,25.0,29.94,NW,322,3.3,3.6,73,0.00,,,0.01,WUHU216HW,2013-03-03 03:23:00,
2013-03-02 22:25:00,32.8,24.7,29.94,NNW,333,4.5,5.4,72,0.00,,,0.01,WUHU216HW,2013-03-03 03:25:00,
2013-03-02 22:26:00,32.8,24.7,29.94,North,0,4.0,5.4,72,0.00,,,0.01,WUHU216HW,2013-03-03 03:26:00,
2013-03-02 22:27:00,32.8,25.0,29.94,NNW,337,3.1,5.4,73,0.00,,,0.01,WUHU216HW,2013-03-03 03:27:00,
2013-03-02 22:30:00,32.8,25.0,29.94,NNE,13,3.5,5.4,73,0.00,,,0.01,WUHU216HW,2013-03-03 03:30:00,
2013-03-02 22:31:00,32.8,25.0,29.94,NE,43,2.3,5.4,73,0.00,,,0.01,WUHU216HW,2013-03-03 03:31:00,
2013-03-02 22:32:00,32.8,25.0,29.94,North,0,3.8,5.4,73,0.00,,,0.01,WUHU216HW,2013-03-03 03:32:00,
2013-03-02 22:36:00,32.8,25.0,29.94,NW,315,3.5,4.5,73,0.00,,,0.01,WUHU216HW,2013-03-03 03:36:00,
2013-03-02 22:37:00,32.8,25.0,29.94,NNE,23,1.8,4.0,73,0.00,,,0.01,WUHU216HW,2013-03-03 03:37:00,
2013-03-02 22:39:00,32.8,24.7,29.94,ENE,68,4.3,4.3,72,0.00,,,0.01,WUHU216HW,2013-03-03 03:39:00,
2013-03-02 22:42:00,32.6,24.8,29.94,NNW,338,2.7,4.3,73,0.00,,,0.01,WUHU216HW,2013-03-03 03:42:00,
2013-03-02 22:44:00,32.8,25.0,29.94,WNW,293,1.5,4.3,73,0.00,,,0.01,WUHU216HW,2013-03-03 03:44:00,
2013-03-02 22:48:00,32.8,25.0,29.94,NNW,338,2.1,4.3,73,0.00,,,0.01,WUHU216HW,2013-03-03 03:48:00,
2013-03-02 22:49:00,32.8,25.0,29.94,West,270,3.8,3.8,73,0.00,,,0.01,WUHU216HW,2013-03-03 03:49:00,
2013-03-02 22:50:00,32.8,25.0,29.94,WNW,297,3.3,3.8,73,0.00,,,0.01,WUHU216HW,2013-03-03 03:50:00,
2013-03-02 22:53:00,32.8,25.0,29.94,NNW,347,2.3,4.0,73,0.00,,,0.01,WUHU216HW,2013-03-03 03:53:00,
2013-03-02 22:54:00,32.8,25.0,29.94,NW,315,3.1,4.0,73,0.00,,,0.01,WUHU216HW,2013-03-03 03:54:00,
2013-03-02 22:55:00,32.8,25.0,29.94,NW,315,3.0,4.0,73,0.00,,,0.01,WUHU216HW,2013-03-03 03:55:00,
2013-03-02 22:59:00,32.8,25.0,29.94,NNW,338,5.8,5.8,73,0.00,,,0.01,WUHU216HW,2013-03-03 03:59:00,
2013-03-02 23:00:00,32.6,24.6,29.94,NNW,327,4.0,5.8,72,0.00,,,0.01,WUHU216HW,2013-03-03 04:00:00,
2013-03-02 23:02:00,32.6,24.6,29.94,NW,315,5.8,5.8,72,0.00,,,0.01,WUHU216HW,2013-03-03 04:02:00,
2013-03-02 23:04:00,32.6,24.6,29.94,NW,315,2.8,5.8,72,0.00,,,0.01,WUHU216HW,2013-03-03 04:04:00,
2013-03-02 23:05:00,32.6,24.6,29.94,NW,315,4.9,5.8,72,0.00,,,0.01,WUHU216HW,2013-03-03 04:05:00,
2013-03-02 23:07:00,32.6,24.6,29.94,North,0,4.0,5.8,72,0.00,,,0.01,WUHU216HW,2013-03-03 04:07:00,
2013-03-02 23:10:00,32.6,24.6,29.94,NNE,23,3.8,5.8,72,0.00,,,0.01,WUHU216HW,2013-03-03 04:10:00,
2013-03-02 23:11:00,32.6,24.6,29.94,NNE,15,2.8,5.8,72,0.00,,,0.01,WUHU216HW,2013-03-03 04:11:00,
2013-03-02 23:13:00,32.6,24.6,29.94,NNW,338,3.9,4.9,72,0.00,,,0.01,WUHU216HW,2013-03-03 04:13:00,
2013-03-02 23:15:00,32.6,24.6,29.94,WNW,293,4.5,4.7,72,0.00,,,0.01,WUHU216HW,2013-03-03 04:15:00,
2013-03-02 23:16:00,32.6,24.6,29.94,WNW,293,4.5,4.7,72,0.00,,,0.01,WUHU216HW,2013-03-03 04:16:00,
2013-03-02 23:18:00,32.6,24.6,29.94,NNW,343,2.7,4.7,72,0.00,,,0.01,WUHU216HW,2013-03-03 04:18:00,
2013-03-02 23:21:00,32.6,24.6,29.94,NNW,338,2.5,5.4,72,0.00,,,0.01,WUHU216HW,2013-03-03 04:21:00,
2013-03-02 23:22:00,32.6,24.6,29.94,North,0,2.5,5.4,72,0.00,,,0.01,WUHU216HW,2013-03-03 04:22:00,
2013-03-02 23:25:00,32.4,24.0,29.94,NNW,338,3.1,6.9,71,0.00,,,0.01,WUHU216HW,2013-03-03 04:25:00,
2013-03-02 23:26:00,32.4,24.0,29.94,NNW,338,4.7,6.9,71,0.00,,,0.01,WUHU216HW,2013-03-03 04:26:00,
2013-03-02 23:27:00,32.4,24.0,29.94,NNW,338,4.7,6.9,71,0.00,,,0.01,WUHU216HW,2013-03-03 04:27:00,
2013-03-02 23:30:00,32.4,24.4,29.94,NNW,348,4.5,6.9,72,0.00,,,0.01,WUHU216HW,2013-03-03 04:30:00,
2013-03-02 23:31:00,32.4,24.4,29.94,North,352,3.3,6.9,72,0.00,,,0.01,WUHU216HW,2013-03-03 04:31:00,
2013-03-02 23:32:00,32.4,24.4,29.94,North,352,3.3,6.9,72,0.00,,,0.01,WUHU216HW,2013-03-03 04:32:00,
2013-03-02 23:36:00,32.4,24.4,29.94,NNW,338,2.6,4.7,72,0.00,,,0.01,WUHU216HW,2013-03-03 04:36:00,
2013-03-02 23:37:00,32.4,24.4,29.94,NNW,338,2.6,4.7,72,0.00,,,0.01,WUHU216HW,2013-03-03 04:37:00,
2013-03-02 23:42:00,32.4,24.4,29.94,NNW,347,2.6,4.0,72,0.00,,,0.01,WUHU216HW,2013-03-03 04:42:00,
2013-03-02 23:43:00,32.4,24.4,29.94,NNW,338,3.1,4.0,72,0.00,,,0.01,WUHU216HW,2013-03-03 04:43:00,
2013-03-02 23:47:00,32.4,24.4,29.94,NNW,331,2.8,4.3,72,0.00,,,0.01,WUHU216HW,2013-03-03 04:47:00,
2013-03-02 23:48:00,32.4,24.4,29.94,North,0,4.7,4.7,72,0.00,,,0.01,WUHU216HW,2013-03-03 04:48:00,
2013-03-02 23:52:00,32.2,24.2,29.94,NW,326,4.3,6.3,72,0.00,,,0.01,WUHU216HW,2013-03-03 04:52:00,
2013-03-02 23:53:00,32.2,24.2,29.94,NW,326,4.3,6.3,72,0.00,,,0.01,WUHU216HW,2013-03-03 04:53:00,
2013-03-02 23:58:00,32.2,24.6,29.94,NNW,338,3.4,6.3,73,0.00,,,0.01,WUHU216HW,2013-03-03 04:58:00,